| time (UTC) | temp C | wind direction | speed KPH | gust KPH | rain 1hr cm | rain 24hr cm | rain mn cm | humidity % | barometer mb |
| 20260506124803 | 4 | 225 | 1.6 | 3.2 | 0.00 | 0.53 | 0.00 | 93 | 1013.3 |
| 20260506124704 | 4 | 0 | 0.0 | 3.2 | 0.00 | 0.53 | 0.00 | 93 | 1013.2 |
| 20260506124603 | 4 | 0 | 0.0 | 3.2 | 0.00 | 0.53 | 0.00 | 93 | 1013.2 |
| 20260506124504 | 4 | 0 | 0.0 | 1.6 | 0.00 | 0.53 | 0.00 | 93 | 1013.2 |
| 20260506124303 | 4 | 0 | 0.0 | 0.0 | 0.00 | 0.56 | 0.00 | 93 | 1013.2 |
| 20260506124204 | 4 | 0 | 0.0 | 0.0 | 0.00 | 0.56 | 0.00 | 93 | 1013.1 |
| 20260506124104 | 4 | 0 | 0.0 | 0.0 | 0.00 | 0.56 | 0.00 | 93 | 1013.2 |
| 20260506123903 | 5 | 0 | 0.0 | 1.6 | 0.00 | 0.56 | 0.00 | 92 | 1013.1 |
| 20260506123804 | 5 | 0 | 0.0 | 1.6 | 0.00 | 0.56 | 0.00 | 93 | 1012.9 |
| 20260506123703 | 5 | 0 | 0.0 | 1.6 | 0.00 | 0.56 | 0.00 | 93 | 1013.1 |
| 20260506123604 | 5 | 0 | 0.0 | 1.6 | 0.00 | 0.56 | 0.00 | 93 | 1013.1 |
| 20260506123504 | 5 | 0 | 0.0 | 1.6 | 0.00 | 0.56 | 0.00 | 93 | 1013.1 |
| 20260506123204 | 5 | 0 | 0.0 | 1.6 | 0.00 | 0.56 | 0.00 | 93 | 1013.1 |
| 20260506123103 | 5 | 0 | 0.0 | 1.6 | 0.00 | 0.56 | 0.00 | 93 | 1013.0 |
| 20260506123004 | 5 | 0 | 0.0 | 1.6 | 0.00 | 0.56 | 0.00 | 93 | 1013.0 |
| 20260506122903 | 5 | 0 | 0.0 | 1.6 | 0.00 | 0.56 | 0.00 | 93 | 1013.0 |
| 20260506122803 | 5 | 0 | 0.0 | 3.2 | 0.00 | 0.56 | 0.00 | 93 | 1013.1 |
| 20260506122704 | 5 | 0 | 0.0 | 3.2 | 0.00 | 0.56 | 0.00 | 94 | 1012.9 |
| 20260506122605 | 5 | 0 | 0.0 | 3.2 | 0.00 | 0.56 | 0.00 | 94 | 1013.1 |
| 20260506122504 | 5 | 0 | 0.0 | 3.2 | 0.00 | 0.56 | 0.00 | 94 | 1013.1 |
| 20260506122404 | 5 | 0 | 0.0 | 3.2 | 0.00 | 0.56 | 0.00 | 94 | 1013.0 |
| 20260506122306 | 5 | 0 | 0.0 | 3.2 | 0.00 | 0.56 | 0.00 | 94 | 1012.9 |
| 20260506122203 | 5 | 0 | 0.0 | 3.2 | 0.00 | 0.56 | 0.00 | 94 | 1013.0 |
| 20260506122104 | 5 | 0 | 0.0 | 3.2 | 0.00 | 0.61 | 0.00 | 94 | 1012.9 |
| 20260506122003 | 5 | 0 | 0.0 | 3.2 | 0.00 | 0.61 | 0.00 | 94 | 1012.9 |
| 20260506121903 | 5 | 0 | 0.0 | 3.2 | 0.00 | 0.61 | 0.00 | 93 | 1012.9 |
| 20260506121804 | 5 | 135 | 1.6 | 3.2 | 0.00 | 0.61 | 0.00 | 93 | 1013.0 |
| 20260506121703 | 5 | 0 | 0.0 | 1.6 | 0.00 | 0.61 | 0.00 | 93 | 1012.9 |
| 20260506121604 | 5 | 0 | 0.0 | 1.6 | 0.00 | 0.61 | 0.00 | 93 | 1012.9 |
| 20260506121503 | 5 | 0 | 0.0 | 1.6 | 0.00 | 0.61 | 0.00 | 93 | 1012.9 |
| 20260506121404 | 5 | 0 | 0.0 | 3.2 | 0.00 | 0.61 | 0.00 | 93 | 1012.9 |
| 20260506121304 | 5 | 0 | 0.0 | 3.2 | 0.00 | 0.61 | 0.00 | 93 | 1013.0 |
| 20260506121203 | 5 | 0 | 0.0 | 3.2 | 0.00 | 0.61 | 0.00 | 94 | 1012.9 |
| 20260506121104 | 5 | 0 | 0.0 | 3.2 | 0.00 | 0.61 | 0.00 | 94 | 1012.9 |
| 20260506120904 | 5 | 0 | 0.0 | 3.2 | 0.00 | 0.61 | 0.00 | 94 | 1012.9 |
| 20260506120804 | 5 | 0 | 0.0 | 3.2 | 0.00 | 0.61 | 0.00 | 93 | 1012.9 |
| 20260506120704 | 5 | 0 | 0.0 | 3.2 | 0.00 | 0.61 | 0.00 | 93 | 1012.9 |
| 20260506120404 | 5 | 121 | 1.6 | 3.2 | 0.00 | 0.64 | 0.00 | 93 | 1012.8 |
| 20260506120304 | 5 | 118 | 1.6 | 3.2 | 0.00 | 0.64 | 0.00 | 93 | 1012.8 |
| 20260506120203 | 5 | 121 | 1.6 | 3.2 | 0.00 | 0.64 | 0.00 | 93 | 1012.8 |
| 20260506120104 | 5 | 121 | 1.6 | 3.2 | 0.00 | 0.64 | 0.00 | 93 | 1012.8 |
| 20260506120004 | 5 | 122 | 1.6 | 3.2 | 0.00 | 0.64 | 0.00 | 93 | 1012.8 |
| 20260506115904 | 5 | 128 | 1.6 | 3.2 | 0.00 | 0.64 | 0.00 | 93 | 1012.8 |
| 20260506115804 | 5 | 132 | 1.6 | 3.2 | 0.00 | 0.64 | 0.00 | 93 | 1012.8 |
| 20260506115704 | 5 | 127 | 1.6 | 3.2 | 0.00 | 0.64 | 0.00 | 93 | 1012.7 |
| 20260506115603 | 5 | 121 | 1.6 | 3.2 | 0.00 | 0.64 | 0.00 | 93 | 1012.7 |
| 20260506115504 | 5 | 0 | 0.0 | 3.2 | 0.00 | 0.64 | 0.00 | 93 | 1012.7 |
| 20260506115404 | 5 | 112 | 1.6 | 3.2 | 0.00 | 0.64 | 0.00 | 93 | 1012.7 |
| 20260506115306 | 5 | 0 | 0.0 | 3.2 | 0.00 | 0.64 | 0.00 | 93 | 1012.7 |
| 20260506115204 | 5 | 104 | 1.6 | 4.8 | 0.00 | 0.64 | 0.00 | 93 | 1012.7 |
| 20260506115103 | 5 | 99 | 1.6 | 4.8 | 0.00 | 0.64 | 0.00 | 93 | 1012.7 |
| 20260506115004 | 5 | 95 | 1.6 | 4.8 | 0.00 | 0.64 | 0.00 | 93 | 1012.7 |
| 20260506114804 | 5 | 0 | 0.0 | 4.8 | 0.00 | 0.64 | 0.00 | 93 | 1012.7 |
| 20260506114703 | 5 | 0 | 0.0 | 4.8 | 0.00 | 0.64 | 0.00 | 93 | 1012.8 |
| 20260506114504 | 5 | 90 | 1.6 | 4.8 | 0.00 | 0.64 | 0.00 | 93 | 1012.8 |
| 20260506114404 | 5 | 90 | 1.6 | 4.8 | 0.00 | 0.64 | 0.00 | 92 | 1012.8 |
| 20260506114303 | 5 | 90 | 1.6 | 4.8 | 0.00 | 0.64 | 0.00 | 92 | 1012.7 |
| 20260506114204 | 5 | 90 | 3.2 | 4.8 | 0.00 | 0.64 | 0.00 | 92 | 1012.7 |
| 20260506114103 | 5 | 90 | 3.2 | 3.2 | 0.00 | 0.64 | 0.00 | 92 | 1012.7 |
| 20260506114003 | 5 | 90 | 3.2 | 3.2 | 0.00 | 0.64 | 0.00 | 92 | 1012.6 |
| 20260506113904 | 5 | 90 | 3.2 | 3.2 | 0.00 | 0.64 | 0.00 | 92 | 1012.5 |
| 20260506113804 | 5 | 0 | 0.0 | 3.2 | 0.00 | 0.64 | 0.00 | 92 | 1012.6 |
| 20260506113503 | 5 | 90 | 1.6 | 3.2 | 0.00 | 0.66 | 0.00 | 92 | 1012.7 |
| 20260506113404 | 5 | 90 | 1.6 | 3.2 | 0.00 | 0.66 | 0.00 | 92 | 1012.7 |
| 20260506113303 | 5 | 0 | 0.0 | 1.6 | 0.00 | 0.66 | 0.00 | 92 | 1012.5 |
| 20260506113204 | 5 | 0 | 0.0 | 1.6 | 0.00 | 0.66 | 0.00 | 92 | 1012.5 |
| 20260506113104 | 5 | 0 | 0.0 | 1.6 | 0.00 | 0.66 | 0.00 | 92 | 1012.7 |
| 20260506113004 | 5 | 0 | 0.0 | 3.2 | 0.00 | 0.66 | 0.00 | 92 | 1012.5 |
| 20260506112904 | 5 | 0 | 0.0 | 3.2 | 0.00 | 0.66 | 0.00 | 92 | 1012.5 |
| 20260506112803 | 5 | 0 | 0.0 | 3.2 | 0.00 | 0.66 | 0.00 | 93 | 1012.4 |
| 20260506112604 | 5 | 0 | 0.0 | 3.2 | 0.00 | 0.66 | 0.00 | 93 | 1012.4 |
| 20260506112503 | 5 | 0 | 0.0 | 3.2 | 0.00 | 0.66 | 0.00 | 93 | 1012.4 |
| 20260506112403 | 5 | 0 | 0.0 | 3.2 | 0.00 | 0.66 | 0.00 | 93 | 1012.4 |
| 20260506112306 | 5 | 0 | 0.0 | 3.2 | 0.00 | 0.69 | 0.00 | 93 | 1012.5 |
| 20260506112203 | 5 | 0 | 0.0 | 3.2 | 0.00 | 0.69 | 0.00 | 93 | 1012.4 |
| 20260506112104 | 5 | 0 | 0.0 | 3.2 | 0.00 | 0.69 | 0.00 | 93 | 1012.4 |
| 20260506112004 | 5 | 0 | 0.0 | 3.2 | 0.00 | 0.69 | 0.00 | 93 | 1012.3 |
| 20260506111604 | 5 | 0 | 0.0 | 3.2 | 0.00 | 0.69 | 0.00 | 92 | 1012.4 |
| 20260506111503 | 5 | 0 | 0.0 | 3.2 | 0.00 | 0.71 | 0.00 | 92 | 1012.4 |
| 20260506111404 | 5 | 0 | 0.0 | 3.2 | 0.00 | 0.71 | 0.00 | 92 | 1012.5 |
| 20260506111303 | 5 | 0 | 0.0 | 3.2 | 0.00 | 0.71 | 0.00 | 92 | 1012.4 |
| 20260506111104 | 5 | 0 | 0.0 | 0.0 | 0.00 | 0.71 | 0.00 | 92 | 1012.4 |
| 20260506110904 | 5 | 0 | 0.0 | 1.6 | 0.00 | 0.71 | 0.00 | 92 | 1012.4 |
| 20260506110804 | 5 | 0 | 0.0 | 1.6 | 0.00 | 0.71 | 0.00 | 92 | 1012.4 |
| 20260506110703 | 5 | 0 | 0.0 | 1.6 | 0.00 | 0.71 | 0.00 | 92 | 1012.4 |
| 20260506110604 | 5 | 0 | 0.0 | 1.6 | 0.00 | 0.71 | 0.00 | 92 | 1012.4 |
| 20260506110403 | 5 | 0 | 0.0 | 1.6 | 0.00 | 0.71 | 0.00 | 92 | 1012.4 |
| 20260506110304 | 5 | 0 | 0.0 | 1.6 | 0.00 | 0.71 | 0.00 | 92 | 1012.4 |
| 20260506110203 | 5 | 0 | 0.0 | 3.2 | 0.00 | 0.71 | 0.00 | 92 | 1012.3 |
| 20260506110004 | 5 | 0 | 0.0 | 3.2 | 0.00 | 0.71 | 0.00 | 92 | 1012.3 |
| 20260506105904 | 5 | 0 | 0.0 | 3.2 | 0.00 | 0.71 | 0.00 | 91 | 1012.3 |
| 20260506105803 | 5 | 0 | 0.0 | 3.2 | 0.00 | 0.71 | 0.00 | 91 | 1012.3 |
| 20260506105604 | 5 | 0 | 0.0 | 3.2 | 0.00 | 0.71 | 0.00 | 91 | 1012.4 |
| 20260506105404 | 5 | 0 | 0.0 | 3.2 | 0.00 | 0.71 | 0.00 | 91 | 1012.4 |
| 20260506105305 | 5 | 0 | 0.0 | 3.2 | 0.00 | 0.71 | 0.00 | 91 | 1012.2 |
| 20260506105204 | 5 | 82 | 1.6 | 3.2 | 0.00 | 0.71 | 0.00 | 91 | 1012.2 |
| 20260506105103 | 5 | 0 | 0.0 | 3.2 | 0.00 | 0.71 | 0.00 | 91 | 1012.3 |
| 20260506105004 | 5 | 0 | 0.0 | 3.2 | 0.00 | 0.71 | 0.00 | 91 | 1012.2 |
| 20260506104803 | 5 | 0 | 0.0 | 3.2 | 0.00 | 0.71 | 0.00 | 91 | 1012.3 |
| 20260506104704 | 5 | 0 | 0.0 | 3.2 | 0.00 | 0.71 | 0.00 | 91 | 1012.2 |
| 20260506104603 | 5 | 0 | 0.0 | 3.2 | 0.00 | 0.71 | 0.00 | 91 | 1012.3 |
| 20260506104404 | 5 | 118 | 1.6 | 3.2 | 0.00 | 0.71 | 0.00 | 91 | 1012.2 |
| 20260506104303 | 5 | 0 | 0.0 | 1.6 | 0.00 | 0.71 | 0.00 | 91 | 1012.2 |
| 20260506104204 | 5 | 0 | 0.0 | 1.6 | 0.00 | 0.71 | 0.00 | 91 | 1012.2 |
| 20260506104104 | 5 | 0 | 0.0 | 1.6 | 0.00 | 0.71 | 0.00 | 91 | 1012.1 |
| 20260506104003 | 5 | 0 | 0.0 | 1.6 | 0.00 | 0.71 | 0.00 | 91 | 1012.1 |
| 20260506103904 | 5 | 0 | 0.0 | 1.6 | 0.00 | 0.71 | 0.00 | 91 | 1012.3 |
| 20260506103604 | 5 | 0 | 0.0 | 3.2 | 0.00 | 0.71 | 0.00 | 91 | 1012.2 |
| 20260506103404 | 5 | 0 | 0.0 | 3.2 | 0.00 | 0.71 | 0.00 | 91 | 1012.0 |
| 20260506103304 | 5 | 0 | 0.0 | 3.2 | 0.00 | 0.71 | 0.00 | 91 | 1012.2 |
| 20260506103103 | 5 | 0 | 0.0 | 3.2 | 0.00 | 0.71 | 0.00 | 91 | 1012.0 |
| 20260506103004 | 5 | 0 | 0.0 | 3.2 | 0.00 | 0.71 | 0.00 | 91 | 1012.0 |
| 20260506102903 | 5 | 0 | 0.0 | 3.2 | 0.00 | 0.71 | 0.00 | 91 | 1012.1 |
| 20260506102804 | 5 | 0 | 0.0 | 3.2 | 0.00 | 0.71 | 0.00 | 91 | 1012.0 |
| 20260506102603 | 5 | 0 | 0.0 | 3.2 | 0.00 | 0.71 | 0.00 | 91 | 1012.1 |
| 20260506102504 | 5 | 0 | 0.0 | 3.2 | 0.00 | 0.71 | 0.00 | 91 | 1012.0 |
| 20260506102403 | 5 | 0 | 0.0 | 3.2 | 0.00 | 0.71 | 0.00 | 91 | 1012.1 |
| 20260506102204 | 5 | 170 | 1.6 | 3.2 | 0.00 | 0.71 | 0.00 | 91 | 1012.0 |
| 20260506102104 | 5 | 0 | 0.0 | 3.2 | 0.00 | 0.71 | 0.00 | 91 | 1011.9 |
| 20260506102004 | 6 | 0 | 0.0 | 3.2 | 0.00 | 0.71 | 0.00 | 91 | 1011.9 |
| 20260506101903 | 6 | 0 | 0.0 | 3.2 | 0.00 | 0.71 | 0.00 | 91 | 1012.0 |
| 20260506101803 | 6 | 155 | 1.6 | 3.2 | 0.00 | 0.71 | 0.00 | 91 | 1011.9 |
| 20260506101704 | 6 | 147 | 1.6 | 3.2 | 0.00 | 0.71 | 0.00 | 91 | 1011.9 |
| 20260506101603 | 6 | 0 | 0.0 | 3.2 | 0.00 | 0.71 | 0.00 | 92 | 1011.9 |
| 20260506101503 | 6 | 0 | 0.0 | 3.2 | 0.00 | 0.71 | 0.00 | 91 | 1011.9 |
| 20260506101404 | 6 | 0 | 0.0 | 3.2 | 0.00 | 0.71 | 0.00 | 91 | 1011.9 |
| 20260506101303 | 6 | 0 | 0.0 | 3.2 | 0.00 | 0.71 | 0.00 | 91 | 1011.9 |
| 20260506101204 | 6 | 135 | 3.2 | 3.2 | 0.00 | 0.71 | 0.00 | 91 | 1011.9 |
| 20260506101104 | 6 | 135 | 1.6 | 3.2 | 0.00 | 0.71 | 0.00 | 91 | 1011.9 |
| 20260506100904 | 6 | 135 | 1.6 | 3.2 | 0.00 | 0.71 | 0.00 | 91 | 1011.9 |
| 20260506100704 | 6 | 0 | 0.0 | 3.2 | 0.00 | 0.71 | 0.00 | 91 | 1011.9 |
| 20260506100503 | 6 | 0 | 0.0 | 3.2 | 0.00 | 0.71 | 0.00 | 91 | 1011.8 |
| 20260506100404 | 6 | 0 | 0.0 | 3.2 | 0.00 | 0.71 | 0.00 | 91 | 1011.9 |
| 20260506100303 | 6 | 0 | 0.0 | 3.2 | 0.00 | 0.71 | 0.00 | 91 | 1011.9 |
| 20260506100204 | 6 | 0 | 0.0 | 3.2 | 0.00 | 0.71 | 0.00 | 91 | 1011.9 |
| 20260506100103 | 6 | 0 | 0.0 | 3.2 | 0.00 | 0.71 | 0.00 | 91 | 1011.9 |
| 20260506100003 | 6 | 0 | 0.0 | 3.2 | 0.00 | 0.71 | 0.00 | 91 | 1011.8 |
| 20260506095904 | 6 | 0 | 0.0 | 3.2 | 0.00 | 0.71 | 0.00 | 91 | 1011.8 |
| 20260506095803 | 6 | 0 | 0.0 | 3.2 | 0.00 | 0.71 | 0.00 | 91 | 1011.8 |
| 20260506095703 | 6 | 0 | 0.0 | 3.2 | 0.00 | 0.71 | 0.00 | 91 | 1011.8 |
| 20260506095604 | 6 | 0 | 0.0 | 3.2 | 0.00 | 0.71 | 0.00 | 91 | 1011.8 |
| 20260506095404 | 6 | 0 | 0.0 | 3.2 | 0.00 | 0.71 | 0.00 | 91 | 1011.7 |
| 20260506095305 | 6 | 0 | 0.0 | 3.2 | 0.00 | 0.71 | 0.00 | 91 | 1011.8 |
| 20260506095204 | 6 | 0 | 0.0 | 3.2 | 0.00 | 0.71 | 0.00 | 91 | 1011.8 |
| 20260506095003 | 6 | 0 | 0.0 | 3.2 | 0.00 | 0.71 | 0.00 | 91 | 1011.7 |
| 20260506094904 | 6 | 0 | 0.0 | 3.2 | 0.00 | 0.71 | 0.00 | 90 | 1011.7 |
| 20260506094804 | 6 | 0 | 0.0 | 3.2 | 0.00 | 0.71 | 0.00 | 90 | 1011.7 |
| 20260506094703 | 6 | 0 | 0.0 | 3.2 | 0.00 | 0.71 | 0.00 | 90 | 1011.6 |
| 20260506094604 | 6 | 0 | 0.0 | 3.2 | 0.00 | 0.71 | 0.00 | 90 | 1011.6 |
| 20260506094503 | 6 | 0 | 0.0 | 3.2 | 0.00 | 0.71 | 0.00 | 90 | 1011.7 |
| 20260506094404 | 6 | 0 | 0.0 | 3.2 | 0.00 | 0.71 | 0.00 | 90 | 1011.6 |
| 20260506094203 | 6 | 0 | 0.0 | 3.2 | 0.00 | 0.71 | 0.00 | 90 | 1011.6 |
| 20260506094104 | 6 | 90 | 1.6 | 3.2 | 0.00 | 0.71 | 0.00 | 90 | 1011.6 |
| 20260506093903 | 6 | 0 | 0.0 | 3.2 | 0.00 | 0.71 | 0.00 | 90 | 1011.6 |
| 20260506093703 | 6 | 90 | 3.2 | 3.2 | 0.00 | 0.71 | 0.00 | 90 | 1011.6 |
| 20260506093603 | 6 | 90 | 3.2 | 3.2 | 0.00 | 0.71 | 0.00 | 90 | 1011.5 |
| 20260506093504 | 6 | 90 | 1.6 | 3.2 | 0.00 | 0.71 | 0.00 | 90 | 1011.5 |
| 20260506093403 | 6 | 0 | 0.0 | 3.2 | 0.00 | 0.71 | 0.00 | 90 | 1011.6 |
| 20260506093204 | 6 | 0 | 0.0 | 3.2 | 0.00 | 0.71 | 0.00 | 90 | 1011.6 |
| 20260506093103 | 6 | 90 | 1.6 | 3.2 | 0.00 | 0.71 | 0.00 | 90 | 1011.6 |
| 20260506093003 | 6 | 0 | 0.0 | 3.2 | 0.00 | 0.71 | 0.00 | 90 | 1011.5 |
| 20260506092904 | 6 | 0 | 0.0 | 3.2 | 0.00 | 0.71 | 0.00 | 90 | 1011.5 |
| 20260506092804 | 6 | 0 | 0.0 | 3.2 | 0.00 | 0.71 | 0.00 | 90 | 1011.5 |
| 20260506092704 | 6 | 0 | 0.0 | 3.2 | 0.00 | 0.71 | 0.00 | 90 | 1011.4 |
| 20260506092604 | 6 | 90 | 1.6 | 3.2 | 0.00 | 0.71 | 0.00 | 90 | 1011.5 |
| 20260506092503 | 6 | 90 | 3.2 | 3.2 | 0.00 | 0.71 | 0.00 | 90 | 1011.5 |
| 20260506092404 | 6 | 90 | 1.6 | 3.2 | 0.00 | 0.71 | 0.00 | 90 | 1011.5 |
| 20260506092305 | 6 | 91 | 1.6 | 3.2 | 0.00 | 0.71 | 0.00 | 90 | 1011.6 |
| 20260506092204 | 6 | 95 | 1.6 | 3.2 | 0.00 | 0.71 | 0.00 | 90 | 1011.6 |
| 20260506092104 | 6 | 0 | 0.0 | 3.2 | 0.00 | 0.71 | 0.00 | 89 | 1011.5 |
| 20260506092003 | 6 | 102 | 1.6 | 3.2 | 0.00 | 0.71 | 0.00 | 89 | 1011.5 |
| 20260506091904 | 6 | 0 | 0.0 | 3.2 | 0.00 | 0.71 | 0.00 | 89 | 1011.4 |
| 20260506091803 | 6 | 0 | 0.0 | 3.2 | 0.00 | 0.71 | 0.00 | 89 | 1011.4 |
| 20260506091704 | 6 | 0 | 0.0 | 3.2 | 0.00 | 0.71 | 0.00 | 89 | 1011.4 |
| 20260506091604 | 6 | 0 | 0.0 | 3.2 | 0.00 | 0.71 | 0.00 | 89 | 1011.4 |
| 20260506091503 | 6 | 0 | 0.0 | 3.2 | 0.00 | 0.71 | 0.00 | 89 | 1011.4 |
| 20260506091403 | 6 | 0 | 0.0 | 3.2 | 0.00 | 0.71 | 0.00 | 89 | 1011.4 |
| 20260506091304 | 6 | 0 | 0.0 | 3.2 | 0.00 | 0.71 | 0.00 | 89 | 1011.3 |
| 20260506091204 | 6 | 0 | 0.0 | 3.2 | 0.00 | 0.71 | 0.00 | 89 | 1011.3 |
| 20260506091104 | 6 | 0 | 0.0 | 3.2 | 0.00 | 0.71 | 0.00 | 89 | 1011.3 |
| 20260506091003 | 6 | 0 | 0.0 | 3.2 | 0.00 | 0.71 | 0.00 | 89 | 1011.3 |
| 20260506090904 | 6 | 0 | 0.0 | 3.2 | 0.00 | 0.71 | 0.00 | 89 | 1011.3 |
| 20260506090804 | 6 | 0 | 0.0 | 3.2 | 0.00 | 0.71 | 0.00 | 89 | 1011.4 |
| 20260506090704 | 6 | 0 | 0.0 | 1.6 | 0.00 | 0.71 | 0.00 | 89 | 1011.3 |
| 20260506090604 | 6 | 0 | 0.0 | 1.6 | 0.00 | 0.71 | 0.00 | 89 | 1011.3 |
| 20260506090404 | 6 | 0 | 0.0 | 3.2 | 0.00 | 0.71 | 0.00 | 89 | 1011.3 |
| 20260506090303 | 6 | 0 | 0.0 | 3.2 | 0.00 | 0.71 | 0.00 | 89 | 1011.3 |
| 20260506090203 | 6 | 0 | 0.0 | 3.2 | 0.00 | 0.71 | 0.00 | 89 | 1011.4 |
| 20260506090104 | 6 | 0 | 0.0 | 3.2 | 0.00 | 0.71 | 0.00 | 89 | 1011.4 |
| 20260506090003 | 6 | 0 | 0.0 | 3.2 | 0.00 | 0.71 | 0.00 | 89 | 1011.3 |
| 20260506085804 | 6 | 0 | 0.0 | 3.2 | 0.00 | 0.71 | 0.00 | 89 | 1011.4 |
| 20260506085703 | 6 | 0 | 0.0 | 3.2 | 0.00 | 0.71 | 0.00 | 89 | 1011.3 |
| 20260506085604 | 6 | 0 | 0.0 | 3.2 | 0.00 | 0.71 | 0.00 | 89 | 1011.3 |
| 20260506085504 | 6 | 0 | 0.0 | 3.2 | 0.00 | 0.71 | 0.00 | 89 | 1011.4 |
| 20260506085404 | 6 | 109 | 1.6 | 3.2 | 0.00 | 0.71 | 0.00 | 88 | 1011.4 |
| 20260506085306 | 6 | 121 | 1.6 | 3.2 | 0.00 | 0.71 | 0.00 | 88 | 1011.4 |
| 20260506085204 | 6 | 0 | 0.0 | 3.2 | 0.00 | 0.71 | 0.00 | 88 | 1011.3 |
| 20260506084903 | 6 | 0 | 0.0 | 3.2 | 0.00 | 0.71 | 0.00 | 88 | 1011.4 |
| 20260506084804 | 6 | 0 | 0.0 | 3.2 | 0.00 | 0.71 | 0.00 | 88 | 1011.4 |
| 20260506084703 | 6 | 0 | 0.0 | 3.2 | 0.00 | 0.71 | 0.00 | 88 | 1011.3 |
| 20260506084604 | 6 | 0 | 0.0 | 3.2 | 0.00 | 0.71 | 0.00 | 88 | 1011.4 |
| 20260506084504 | 6 | 0 | 0.0 | 3.2 | 0.00 | 0.71 | 0.00 | 88 | 1011.4 |
| 20260506084403 | 6 | 0 | 0.0 | 3.2 | 0.00 | 0.71 | 0.00 | 87 | 1011.4 |
| 20260506084204 | 6 | 0 | 0.0 | 3.2 | 0.00 | 0.71 | 0.00 | 87 | 1011.5 |
| 20260506084003 | 6 | 0 | 0.0 | 3.2 | 0.00 | 0.71 | 0.00 | 87 | 1011.4 |
| 20260506083904 | 6 | 0 | 0.0 | 3.2 | 0.00 | 0.71 | 0.00 | 87 | 1011.4 |
| 20260506083803 | 6 | 0 | 0.0 | 3.2 | 0.00 | 0.71 | 0.00 | 87 | 1011.4 |
| 20260506083704 | 6 | 0 | 0.0 | 3.2 | 0.00 | 0.71 | 0.00 | 87 | 1011.4 |
| 20260506083604 | 6 | 0 | 0.0 | 3.2 | 0.00 | 0.71 | 0.00 | 87 | 1011.4 |
| 20260506083503 | 7 | 0 | 0.0 | 3.2 | 0.00 | 0.71 | 0.00 | 87 | 1011.4 |
| 20260506083404 | 7 | 0 | 0.0 | 3.2 | 0.00 | 0.71 | 0.00 | 87 | 1011.3 |
| 20260506083303 | 7 | 0 | 0.0 | 3.2 | 0.00 | 0.71 | 0.00 | 87 | 1011.4 |
| 20260506083204 | 7 | 0 | 0.0 | 3.2 | 0.00 | 0.71 | 0.00 | 86 | 1011.4 |
| 20260506083103 | 7 | 102 | 1.6 | 3.2 | 0.00 | 0.71 | 0.00 | 86 | 1011.3 |
| 20260506083003 | 7 | 107 | 1.6 | 3.2 | 0.00 | 0.71 | 0.00 | 86 | 1011.3 |
| 20260506082904 | 7 | 107 | 1.6 | 3.2 | 0.00 | 0.71 | 0.00 | 86 | 1011.3 |
| 20260506082803 | 7 | 0 | 0.0 | 3.2 | 0.00 | 0.71 | 0.00 | 87 | 1011.4 |
| 20260506082704 | 7 | 0 | 0.0 | 1.6 | 0.00 | 0.71 | 0.00 | 87 | 1011.4 |
| 20260506082603 | 7 | 0 | 0.0 | 1.6 | 0.00 | 0.71 | 0.00 | 87 | 1011.4 |
| 20260506082503 | 7 | 0 | 0.0 | 1.6 | 0.00 | 0.71 | 0.00 | 86 | 1011.4 |
| 20260506082404 | 7 | 0 | 0.0 | 1.6 | 0.00 | 0.71 | 0.00 | 86 | 1011.4 |
| 20260506082305 | 7 | 0 | 0.0 | 1.6 | 0.00 | 0.71 | 0.00 | 86 | 1011.4 |
| 20260506082204 | 7 | 0 | 0.0 | 1.6 | 0.00 | 0.71 | 0.00 | 86 | 1011.4 |
| 20260506082104 | 7 | 0 | 0.0 | 1.6 | 0.00 | 0.71 | 0.00 | 86 | 1011.4 |
| 20260506081904 | 7 | 0 | 0.0 | 6.4 | 0.00 | 0.71 | 0.00 | 86 | 1011.4 |
| 20260506081804 | 7 | 0 | 0.0 | 6.4 | 0.00 | 0.71 | 0.00 | 86 | 1011.5 |
| 20260506081703 | 7 | 0 | 0.0 | 6.4 | 0.00 | 0.71 | 0.00 | 86 | 1011.4 |
| 20260506081404 | 8 | 0 | 0.0 | 6.4 | 0.00 | 0.71 | 0.00 | 87 | 1011.4 |
| 20260506081305 | 8 | 0 | 0.0 | 6.4 | 0.00 | 0.71 | 0.00 | 87 | 1011.3 |
| 20260506081104 | 7 | 294 | 1.6 | 6.4 | 0.00 | 0.71 | 0.00 | 87 | 1011.3 |
| 20260506081003 | 7 | 302 | 3.2 | 6.4 | 0.00 | 0.71 | 0.00 | 87 | 1011.2 |
| 20260506080904 | 7 | 304 | 3.2 | 6.4 | 0.00 | 0.71 | 0.00 | 87 | 1011.2 |
| 20260506080804 | 7 | 0 | 0.0 | 6.4 | 0.00 | 0.71 | 0.00 | 87 | 1011.3 |
| 20260506080703 | 7 | 302 | 4.8 | 6.4 | 0.00 | 0.71 | 0.00 | 86 | 1011.3 |
| 20260506080604 | 7 | 297 | 4.8 | 6.4 | 0.00 | 0.71 | 0.00 | 86 | 1011.3 |
| 20260506080503 | 7 | 293 | 4.8 | 6.4 | 0.00 | 0.71 | 0.00 | 86 | 1011.5 |
| 20260506080404 | 7 | 287 | 4.8 | 8.0 | 0.00 | 0.71 | 0.00 | 86 | 1011.4 |
| 20260506080304 | 7 | 284 | 4.8 | 8.0 | 0.00 | 0.71 | 0.00 | 86 | 1011.3 |
| 20260506080203 | 7 | 278 | 4.8 | 8.0 | 0.00 | 0.71 | 0.00 | 86 | 1011.3 |
| 20260506080104 | 7 | 273 | 4.8 | 8.0 | 0.00 | 0.71 | 0.00 | 86 | 1011.3 |
| 20260506073504 | 8 | 0 | 0.0 | 3.2 | 0.00 | 0.71 | 0.00 | 82 | 1011.0 |
| 20260506073403 | 8 | 0 | 0.0 | 3.2 | 0.00 | 0.71 | 0.00 | 82 | 1011.0 |
| 20260506073304 | 8 | 0 | 0.0 | 3.2 | 0.00 | 0.71 | 0.00 | 82 | 1011.0 |
| 20260506073203 | 8 | 0 | 0.0 | 3.2 | 0.00 | 0.71 | 0.00 | 82 | 1011.0 |
| 20260506073104 | 8 | 0 | 0.0 | 3.2 | 0.00 | 0.71 | 0.00 | 82 | 1010.9 |
| 20260506073004 | 8 | 0 | 0.0 | 3.2 | 0.00 | 0.71 | 0.00 | 82 | 1011.0 |
| 20260506072903 | 8 | 0 | 0.0 | 6.4 | 0.00 | 0.71 | 0.00 | 82 | 1010.9 |
| 20260506072804 | 8 | 0 | 0.0 | 6.4 | 0.00 | 0.71 | 0.00 | 82 | 1010.9 |
| 20260506072703 | 8 | 0 | 0.0 | 6.4 | 0.00 | 0.71 | 0.00 | 82 | 1010.9 |
| 20260506072604 | 8 | 0 | 0.0 | 6.4 | 0.00 | 0.71 | 0.00 | 82 | 1010.8 |
| 20260506072504 | 8 | 0 | 0.0 | 6.4 | 0.00 | 0.71 | 0.00 | 82 | 1010.9 |
| 20260506072404 | 8 | 0 | 0.0 | 6.4 | 0.00 | 0.71 | 0.00 | 82 | 1010.8 |
| 20260506072305 | 8 | 0 | 0.0 | 6.4 | 0.00 | 0.71 | 0.00 | 82 | 1010.8 |
| 20260506072204 | 8 | 0 | 0.0 | 6.4 | 0.00 | 0.71 | 0.00 | 82 | 1010.8 |
| 20260506072104 | 8 | 0 | 0.0 | 6.4 | 0.00 | 0.71 | 0.00 | 82 | 1010.8 |
| 20260506072004 | 8 | 65 | 3.2 | 6.4 | 0.00 | 0.71 | 0.00 | 82 | 1010.8 |
| 20260506071903 | 8 | 55 | 3.2 | 4.8 | 0.00 | 0.71 | 0.00 | 81 | 1010.9 |
| 20260506071804 | 8 | 49 | 3.2 | 4.8 | 0.00 | 0.71 | 0.00 | 81 | 1010.7 |
| 20260506071604 | 8 | 63 | 1.6 | 3.2 | 0.00 | 0.71 | 0.00 | 81 | 1010.8 |
| 20260506071504 | 8 | 0 | 0.0 | 3.2 | 0.00 | 0.71 | 0.00 | 80 | 1010.8 |
| 20260506071403 | 9 | 0 | 0.0 | 3.2 | 0.00 | 0.71 | 0.00 | 81 | 1010.8 |
| 20260506071304 | 9 | 0 | 0.0 | 3.2 | 0.00 | 0.71 | 0.00 | 80 | 1010.8 |
| 20260506071204 | 9 | 0 | 0.0 | 3.2 | 0.00 | 0.71 | 0.00 | 80 | 1010.8 |
| 20260506071103 | 9 | 0 | 0.0 | 3.2 | 0.00 | 0.71 | 0.00 | 80 | 1010.8 |
| 20260506071004 | 9 | 0 | 0.0 | 3.2 | 0.00 | 0.71 | 0.00 | 80 | 1010.9 |
| 20260506070904 | 9 | 0 | 0.0 | 3.2 | 0.00 | 0.71 | 0.00 | 80 | 1010.8 |
| 20260506070804 | 9 | 0 | 0.0 | 3.2 | 0.00 | 0.71 | 0.00 | 80 | 1010.8 |
| 20260506070705 | 9 | 136 | 1.6 | 3.2 | 0.00 | 0.71 | 0.00 | 79 | 1010.8 |
| 20260506070603 | 9 | 132 | 1.6 | 3.2 | 0.00 | 0.71 | 0.00 | 79 | 1010.8 |
| 20260506070403 | 9 | 128 | 1.6 | 3.2 | 0.00 | 0.71 | 0.00 | 79 | 1010.7 |
| 20260506070304 | 9 | 131 | 1.6 | 4.8 | 0.00 | 0.71 | 0.00 | 79 | 1010.7 |
| 20260506070103 | 9 | 141 | 1.6 | 6.4 | 0.00 | 0.71 | 0.00 | 79 | 1010.8 |
| 20260506062504 | 9 | 123 | 3.2 | 8.0 | 0.00 | 0.71 | 0.71 | 79 | 1010.9 |
| 20260506062404 | 9 | 0 | 0.0 | 8.0 | 0.03 | 0.71 | 0.71 | 79 | 1011.0 |
| 20260506062305 | 9 | 0 | 0.0 | 8.0 | 0.03 | 0.71 | 0.71 | 79 | 1010.9 |
| 20260506062204 | 9 | 114 | 1.6 | 8.0 | 0.03 | 0.71 | 0.71 | 79 | 1010.9 |
| 20260506062103 | 10 | 110 | 3.2 | 8.0 | 0.05 | 0.71 | 0.71 | 79 | 1010.8 |
| 20260506061904 | 10 | 102 | 3.2 | 8.0 | 0.10 | 0.71 | 0.71 | 79 | 1010.8 |
| 20260506061603 | 10 | 109 | 1.6 | 8.0 | 0.20 | 0.71 | 0.71 | 78 | 1010.7 |
| 20260506061503 | 10 | 0 | 0.0 | 8.0 | 0.20 | 0.71 | 0.71 | 78 | 1010.8 |
| 20260506061404 | 10 | 0 | 0.0 | 8.0 | 0.20 | 0.71 | 0.71 | 78 | 1010.7 |
| 20260506061303 | 10 | 185 | 3.2 | 8.0 | 0.20 | 0.71 | 0.71 | 78 | 1010.8 |
| 20260506061204 | 10 | 200 | 1.6 | 8.0 | 0.20 | 0.71 | 0.71 | 78 | 1010.8 |
| 20260506061103 | 10 | 210 | 1.6 | 8.0 | 0.20 | 0.71 | 0.71 | 78 | 1010.8 |
| 20260506061004 | 10 | 216 | 3.2 | 12.9 | 0.20 | 0.71 | 0.71 | 78 | 1010.7 |
| 20260506060904 | 10 | 212 | 1.6 | 12.9 | 0.20 | 0.71 | 0.71 | 78 | 1010.8 |
| 20260506060703 | 10 | 220 | 4.8 | 22.5 | 0.20 | 0.71 | 0.71 | 78 | 1010.6 |
| 20260506060604 | 10 | 221 | 4.8 | 25.7 | 0.20 | 0.71 | 0.71 | 78 | 1010.7 |
| 20260506060403 | 10 | 222 | 4.8 | 25.7 | 0.20 | 0.71 | 0.71 | 78 | 1010.7 |
| 20260506060304 | 10 | 223 | 4.8 | 25.7 | 0.20 | 0.71 | 0.71 | 78 | 1010.7 |
| 20260506051304 | 13 | 69 | 22.5 | 25.7 | 0.00 | 0.56 | 0.51 | 68 | 1011.6 |
| 20260506051103 | 13 | 73 | 17.7 | 24.1 | 0.00 | 0.56 | 0.51 | 69 | 1011.4 |
| 20260506051004 | 13 | 80 | 12.9 | 20.9 | 0.00 | 0.56 | 0.51 | 68 | 1011.1 |
| 20260506050904 | 13 | 86 | 11.3 | 16.1 | 0.00 | 0.56 | 0.51 | 67 | 1010.9 |
| 20260506050803 | 12 | 92 | 9.7 | 12.9 | 0.00 | 0.56 | 0.51 | 67 | 1010.4 |
| 20260506050704 | 12 | 92 | 6.4 | 12.9 | 0.00 | 0.56 | 0.51 | 70 | 1010.1 |
| 20260506050503 | 12 | 92 | 6.4 | 12.9 | 0.00 | 0.56 | 0.51 | 70 | 1010.0 |
| 20260506050404 | 12 | 92 | 6.4 | 12.9 | 0.00 | 0.56 | 0.51 | 70 | 1009.8 |
| 20260506050303 | 12 | 92 | 6.4 | 12.9 | 0.00 | 0.56 | 0.51 | 70 | 1009.9 |
| 20260506050204 | 12 | 92 | 6.4 | 12.9 | 0.00 | 0.56 | 0.51 | 70 | 1009.8 |
| 20260506050104 | 12 | 93 | 6.4 | 12.9 | 0.00 | 0.56 | 0.51 | 70 | 1009.8 |
| 20260506045104 | 12 | 108 | 3.2 | 11.3 | 0.00 | 0.56 | 0.51 | 70 | 1009.5 |
| 20260506044904 | 12 | 92 | 3.2 | 12.9 | 0.00 | 0.56 | 0.51 | 70 | 1009.6 |
| 20260506044804 | 12 | 85 | 3.2 | 12.9 | 0.00 | 0.58 | 0.51 | 70 | 1009.6 |
| 20260506044703 | 12 | 84 | 4.8 | 12.9 | 0.00 | 0.58 | 0.51 | 71 | 1009.6 |
| 20260506044604 | 12 | 83 | 6.4 | 12.9 | 0.00 | 0.58 | 0.51 | 71 | 1009.7 |
| 20260506044504 | 12 | 83 | 6.4 | 12.9 | 0.00 | 0.58 | 0.51 | 71 | 1009.6 |
| 20260506044404 | 12 | 83 | 6.4 | 12.9 | 0.00 | 0.58 | 0.51 | 71 | 1009.6 |
| 20260506044304 | 12 | 83 | 6.4 | 12.9 | 0.00 | 0.58 | 0.51 | 71 | 1009.5 |
| 20260506044203 | 12 | 86 | 6.4 | 12.9 | 0.00 | 0.58 | 0.51 | 71 | 1009.5 |
| 20260506044104 | 12 | 86 | 6.4 | 12.9 | 0.00 | 0.58 | 0.51 | 71 | 1009.5 |
| 20260506044004 | 12 | 85 | 8.0 | 12.9 | 0.00 | 0.58 | 0.51 | 71 | 1009.6 |
| 20260506043804 | 12 | 92 | 8.0 | 12.9 | 0.00 | 0.58 | 0.51 | 71 | 1009.5 |
| 20260506043703 | 12 | 99 | 8.0 | 12.9 | 0.00 | 0.58 | 0.51 | 70 | 1009.5 |
| 20260506043604 | 12 | 103 | 6.4 | 9.7 | 0.00 | 0.58 | 0.51 | 70 | 1009.4 |
| 20260506043503 | 12 | 106 | 6.4 | 9.7 | 0.00 | 0.58 | 0.51 | 70 | 1009.5 |
| 20260506043403 | 12 | 109 | 6.4 | 9.7 | 0.00 | 0.58 | 0.51 | 70 | 1009.4 |
| 20260506043103 | 12 | 118 | 6.4 | 8.0 | 0.00 | 0.58 | 0.51 | 68 | 1009.3 |
| 20260506043004 | 12 | 126 | 4.8 | 8.0 | 0.00 | 0.58 | 0.51 | 68 | 1009.3 |
| 20260506042903 | 12 | 132 | 3.2 | 6.4 | 0.00 | 0.58 | 0.51 | 67 | 1009.4 |
| 20260506042804 | 12 | 133 | 3.2 | 6.4 | 0.00 | 0.58 | 0.51 | 67 | 1009.3 |
| 20260506042504 | 12 | 136 | 3.2 | 6.4 | 0.00 | 0.61 | 0.51 | 66 | 1009.2 |
| 20260506042403 | 12 | 138 | 3.2 | 6.4 | 0.00 | 0.61 | 0.51 | 65 | 1009.1 |
| 20260506042204 | 12 | 137 | 3.2 | 6.4 | 0.00 | 0.61 | 0.51 | 65 | 1009.2 |
| 20260506042103 | 12 | 141 | 3.2 | 6.4 | 0.00 | 0.61 | 0.51 | 65 | 1009.2 |
| 20260506041904 | 12 | 0 | 0.0 | 3.2 | 0.00 | 0.61 | 0.51 | 65 | 1009.1 |
| 20260506041803 | 12 | 0 | 0.0 | 3.2 | 0.00 | 0.61 | 0.51 | 65 | 1009.0 |
| 20260506041704 | 12 | 0 | 0.0 | 3.2 | 0.00 | 0.61 | 0.51 | 65 | 1009.0 |
| 20260506041603 | 12 | 0 | 0.0 | 3.2 | 0.00 | 0.61 | 0.51 | 65 | 1008.9 |
| 20260506041503 | 12 | 154 | 1.6 | 3.2 | 0.00 | 0.61 | 0.51 | 65 | 1009.1 |
| 20260506041404 | 12 | 0 | 0.0 | 3.2 | 0.00 | 0.61 | 0.51 | 65 | 1008.9 |
| 20260506041204 | 12 | 194 | 1.6 | 3.2 | 0.00 | 0.61 | 0.51 | 64 | 1009.0 |
| 20260506041104 | 12 | 0 | 0.0 | 3.2 | 0.00 | 0.61 | 0.51 | 64 | 1009.1 |
| 20260506040904 | 12 | 224 | 1.6 | 3.2 | 0.00 | 0.61 | 0.51 | 64 | 1009.1 |
| 20260506040804 | 13 | 0 | 0.0 | 3.2 | 0.00 | 0.61 | 0.51 | 63 | 1009.0 |
| 20260506040703 | 13 | 0 | 0.0 | 3.2 | 0.00 | 0.61 | 0.51 | 63 | 1009.0 |
| 20260506040604 | 13 | 0 | 0.0 | 3.2 | 0.00 | 0.61 | 0.51 | 63 | 1009.0 |
| 20260506040503 | 13 | 0 | 0.0 | 4.8 | 0.00 | 0.61 | 0.51 | 63 | 1009.0 |
| 20260506040403 | 13 | 0 | 0.0 | 4.8 | 0.00 | 0.61 | 0.51 | 63 | 1009.0 |
| 20260506040304 | 13 | 0 | 0.0 | 6.4 | 0.00 | 0.61 | 0.51 | 63 | 1009.0 |
| 20260506040203 | 13 | 0 | 0.0 | 6.4 | 0.00 | 0.61 | 0.51 | 63 | 1009.0 |
| 20260506035903 | 13 | 127 | 1.6 | 6.4 | 0.00 | 0.61 | 0.51 | 63 | 1009.1 |
| 20260506035804 | 13 | 0 | 0.0 | 6.4 | 0.00 | 0.61 | 0.51 | 63 | 1009.1 |
| 20260506035704 | 13 | 0 | 0.0 | 6.4 | 0.00 | 0.61 | 0.51 | 62 | 1008.9 |
| 20260506035603 | 13 | 121 | 1.6 | 6.4 | 0.00 | 0.61 | 0.51 | 62 | 1008.9 |
| 20260506035504 | 13 | 128 | 1.6 | 6.4 | 0.00 | 0.61 | 0.51 | 62 | 1008.9 |
| 20260506035403 | 13 | 127 | 3.2 | 6.4 | 0.00 | 0.61 | 0.51 | 62 | 1009.0 |
| 20260506035306 | 13 | 132 | 1.6 | 6.4 | 0.00 | 0.61 | 0.51 | 62 | 1008.9 |
| 20260506035204 | 13 | 126 | 1.6 | 6.4 | 0.00 | 0.61 | 0.51 | 61 | 1008.9 |
| 20260506035104 | 13 | 126 | 1.6 | 6.4 | 0.00 | 0.61 | 0.51 | 61 | 1008.9 |
| 20260506034903 | 13 | 127 | 1.6 | 6.4 | 0.00 | 0.61 | 0.51 | 61 | 1008.9 |
| 20260506034804 | 13 | 124 | 1.6 | 6.4 | 0.00 | 0.61 | 0.51 | 61 | 1009.0 |
| 20260506034703 | 13 | 123 | 1.6 | 6.4 | 0.00 | 0.61 | 0.51 | 61 | 1008.9 |
| 20260506034604 | 13 | 128 | 1.6 | 6.4 | 0.00 | 0.61 | 0.51 | 61 | 1008.9 |
| 20260506034503 | 13 | 131 | 1.6 | 6.4 | 0.00 | 0.61 | 0.51 | 61 | 1008.9 |
| 20260506034404 | 13 | 127 | 3.2 | 8.0 | 0.00 | 0.61 | 0.51 | 60 | 1008.9 |
| 20260506034304 | 13 | 120 | 3.2 | 8.0 | 0.00 | 0.61 | 0.51 | 60 | 1008.9 |
| 20260506034203 | 13 | 124 | 3.2 | 8.0 | 0.00 | 0.61 | 0.51 | 60 | 1008.9 |
| 20260506034104 | 13 | 130 | 3.2 | 8.0 | 0.00 | 0.61 | 0.51 | 60 | 1008.8 |
| 20260506034004 | 13 | 127 | 3.2 | 8.0 | 0.00 | 0.61 | 0.51 | 60 | 1008.9 |
| 20260506033904 | 13 | 133 | 3.2 | 8.0 | 0.00 | 0.61 | 0.51 | 60 | 1008.8 |
| 20260506033804 | 13 | 136 | 3.2 | 8.0 | 0.00 | 0.61 | 0.51 | 60 | 1008.9 |
| 20260506033704 | 13 | 136 | 1.6 | 8.0 | 0.00 | 0.61 | 0.51 | 60 | 1008.8 |
| 20260506033504 | 13 | 128 | 3.2 | 8.0 | 0.00 | 0.61 | 0.51 | 60 | 1008.8 |
| 20260506033404 | 13 | 126 | 3.2 | 8.0 | 0.00 | 0.61 | 0.51 | 60 | 1008.7 |
| 20260506033203 | 13 | 133 | 3.2 | 6.4 | 0.00 | 0.61 | 0.51 | 60 | 1008.7 |
| 20260506033104 | 13 | 132 | 3.2 | 6.4 | 0.00 | 0.61 | 0.51 | 60 | 1008.6 |
| 20260506033004 | 13 | 132 | 3.2 | 6.4 | 0.00 | 0.61 | 0.51 | 60 | 1008.6 |
| 20260506032804 | 13 | 126 | 3.2 | 8.0 | 0.00 | 0.61 | 0.51 | 60 | 1008.7 |
| 20260506032704 | 13 | 126 | 3.2 | 8.0 | 0.00 | 0.61 | 0.51 | 60 | 1008.6 |
| 20260506032604 | 13 | 133 | 3.2 | 8.0 | 0.00 | 0.61 | 0.51 | 60 | 1008.6 |
| 20260506032404 | 13 | 140 | 1.6 | 8.0 | 0.00 | 0.61 | 0.51 | 59 | 1008.6 |
| 20260506032305 | 13 | 139 | 3.2 | 8.0 | 0.00 | 0.61 | 0.51 | 59 | 1008.7 |
| 20260506032104 | 13 | 135 | 3.2 | 8.0 | 0.00 | 0.61 | 0.51 | 59 | 1008.7 |
| 20260506032004 | 13 | 135 | 4.8 | 8.0 | 0.00 | 0.61 | 0.51 | 59 | 1008.7 |
| 20260506031903 | 13 | 135 | 3.2 | 8.0 | 0.00 | 0.61 | 0.51 | 59 | 1008.7 |
| 20260506031804 | 13 | 139 | 3.2 | 8.0 | 0.00 | 0.61 | 0.51 | 59 | 1008.6 |
| 20260506031704 | 13 | 135 | 3.2 | 8.0 | 0.00 | 0.61 | 0.51 | 59 | 1008.5 |
| 20260506031604 | 13 | 132 | 1.6 | 8.0 | 0.00 | 0.61 | 0.51 | 59 | 1008.5 |
| 20260506031504 | 13 | 0 | 0.0 | 8.0 | 0.00 | 0.61 | 0.51 | 59 | 1008.5 |
| 20260506031403 | 13 | 130 | 3.2 | 8.0 | 0.00 | 0.61 | 0.51 | 59 | 1008.5 |
| 20260506031203 | 13 | 131 | 3.2 | 8.0 | 0.00 | 0.61 | 0.51 | 59 | 1008.5 |
| 20260506031004 | 13 | 131 | 3.2 | 8.0 | 0.00 | 0.61 | 0.51 | 59 | 1008.5 |
| 20260506030804 | 14 | 133 | 3.2 | 6.4 | 0.00 | 0.61 | 0.51 | 59 | 1008.5 |
| 20260506030704 | 14 | 141 | 3.2 | 6.4 | 0.00 | 0.61 | 0.51 | 58 | 1008.5 |
| 20260506030603 | 14 | 142 | 3.2 | 6.4 | 0.00 | 0.61 | 0.51 | 58 | 1008.4 |
| 20260506030504 | 14 | 142 | 3.2 | 6.4 | 0.00 | 0.61 | 0.51 | 58 | 1008.5 |
| 20260506030403 | 14 | 142 | 3.2 | 6.4 | 0.00 | 0.61 | 0.51 | 58 | 1008.5 |
| 20260506030304 | 14 | 142 | 3.2 | 6.4 | 0.00 | 0.61 | 0.51 | 58 | 1008.4 |
| 20260506030204 | 14 | 142 | 3.2 | 6.4 | 0.00 | 0.61 | 0.51 | 58 | 1008.4 |
| 20260506030103 | 14 | 142 | 3.2 | 6.4 | 0.00 | 0.61 | 0.51 | 58 | 1008.5 |
| 20260506030004 | 14 | 144 | 3.2 | 6.4 | 0.00 | 0.61 | 0.51 | 57 | 1008.4 |
| 20260506025903 | 14 | 142 | 3.2 | 6.4 | 0.00 | 0.61 | 0.51 | 57 | 1008.4 |
| 20260506025804 | 14 | 142 | 1.6 | 6.4 | 0.00 | 0.61 | 0.51 | 57 | 1008.4 |
| 20260506025703 | 14 | 135 | 3.2 | 6.4 | 0.00 | 0.61 | 0.51 | 57 | 1008.4 |
| 20260506025604 | 14 | 131 | 3.2 | 6.4 | 0.00 | 0.61 | 0.51 | 56 | 1008.4 |
| 20260506025504 | 15 | 129 | 3.2 | 6.4 | 0.00 | 0.61 | 0.51 | 56 | 1008.4 |
| 20260506025305 | 15 | 133 | 3.2 | 6.4 | 0.00 | 0.61 | 0.51 | 56 | 1008.4 |
| 20260506025203 | 15 | 133 | 1.6 | 6.4 | 0.00 | 0.61 | 0.51 | 55 | 1008.5 |
| 20260506025104 | 15 | 0 | 0.0 | 6.4 | 0.00 | 0.61 | 0.51 | 55 | 1008.4 |
| 20260506025003 | 15 | 132 | 1.6 | 6.4 | 0.00 | 0.61 | 0.51 | 55 | 1008.4 |
| 20260506024904 | 15 | 0 | 0.0 | 6.4 | 0.00 | 0.61 | 0.51 | 55 | 1008.4 |
| 20260506024804 | 15 | 0 | 0.0 | 6.4 | 0.00 | 0.61 | 0.51 | 54 | 1008.4 |
| 20260506024703 | 15 | 136 | 3.2 | 6.4 | 0.00 | 0.61 | 0.51 | 54 | 1008.4 |
| 20260506024604 | 15 | 138 | 1.6 | 6.4 | 0.00 | 0.61 | 0.51 | 54 | 1008.3 |
| 20260506024503 | 15 | 0 | 0.0 | 6.4 | 0.00 | 0.61 | 0.51 | 54 | 1008.3 |
| 20260506024404 | 15 | 127 | 3.2 | 6.4 | 0.00 | 0.61 | 0.51 | 54 | 1008.3 |
| 20260506024303 | 15 | 124 | 3.2 | 6.4 | 0.00 | 0.61 | 0.51 | 53 | 1008.2 |
| 20260506024204 | 15 | 119 | 3.2 | 6.4 | 0.00 | 0.61 | 0.51 | 53 | 1008.3 |
| 20260506024104 | 15 | 124 | 1.6 | 6.4 | 0.00 | 0.61 | 0.51 | 53 | 1008.3 |
| 20260506023903 | 15 | 128 | 1.6 | 6.4 | 0.00 | 0.61 | 0.51 | 52 | 1008.2 |
| 20260506023603 | 16 | 135 | 1.6 | 6.4 | 0.00 | 0.61 | 0.51 | 51 | 1008.2 |
| 20260506023504 | 16 | 143 | 3.2 | 6.4 | 0.00 | 0.61 | 0.51 | 51 | 1008.2 |
| 20260506023304 | 16 | 151 | 3.2 | 6.4 | 0.00 | 0.61 | 0.51 | 50 | 1008.1 |
| 20260506023204 | 16 | 154 | 3.2 | 8.0 | 0.00 | 0.61 | 0.51 | 50 | 1008.2 |
| 20260506023103 | 16 | 146 | 3.2 | 8.0 | 0.00 | 0.61 | 0.51 | 50 | 1008.2 |
| 20260506023004 | 16 | 140 | 3.2 | 8.0 | 0.00 | 0.61 | 0.51 | 49 | 1008.3 |
| 20260506022805 | 16 | 125 | 3.2 | 8.0 | 0.00 | 0.61 | 0.51 | 48 | 1008.1 |
| 20260506022604 | 17 | 135 | 3.2 | 8.0 | 0.00 | 0.61 | 0.51 | 48 | 1008.2 |
| 20260506022504 | 17 | 135 | 3.2 | 8.0 | 0.00 | 0.61 | 0.51 | 47 | 1008.2 |
| 20260506022306 | 17 | 130 | 3.2 | 8.0 | 0.00 | 0.61 | 0.51 | 47 | 1008.2 |
| 20260506022204 | 17 | 124 | 3.2 | 8.0 | 0.00 | 0.61 | 0.51 | 47 | 1008.2 |
| 20260506022103 | 17 | 122 | 4.8 | 8.0 | 0.00 | 0.61 | 0.51 | 47 | 1008.1 |
| 20260506022004 | 17 | 133 | 3.2 | 8.0 | 0.00 | 0.61 | 0.51 | 47 | 1008.0 |
| 20260506021903 | 17 | 143 | 3.2 | 8.0 | 0.00 | 0.61 | 0.51 | 47 | 1008.1 |
| 20260506021804 | 17 | 136 | 3.2 | 8.0 | 0.00 | 0.61 | 0.51 | 47 | 1008.0 |
| 20260506021704 | 17 | 133 | 3.2 | 8.0 | 0.00 | 0.61 | 0.51 | 47 | 1008.0 |
| 20260506021603 | 17 | 125 | 3.2 | 11.3 | 0.00 | 0.61 | 0.51 | 46 | 1008.1 |
| 20260506021504 | 17 | 121 | 3.2 | 11.3 | 0.00 | 0.61 | 0.51 | 46 | 1008.1 |
| 20260506021404 | 17 | 123 | 3.2 | 11.3 | 0.00 | 0.61 | 0.51 | 46 | 1008.1 |
| 20260506021303 | 17 | 127 | 3.2 | 11.3 | 0.00 | 0.61 | 0.51 | 45 | 1008.1 |
| 20260506021204 | 17 | 134 | 3.2 | 11.3 | 0.00 | 0.61 | 0.51 | 45 | 1008.0 |
| 20260506021104 | 17 | 136 | 3.2 | 11.3 | 0.00 | 0.61 | 0.51 | 45 | 1008.2 |
| 20260506021004 | 17 | 134 | 3.2 | 11.3 | 0.00 | 0.61 | 0.51 | 44 | 1008.0 |
| 20260506020803 | 17 | 134 | 3.2 | 11.3 | 0.00 | 0.61 | 0.51 | 44 | 1008.2 |
| 20260506020704 | 18 | 131 | 6.4 | 11.3 | 0.00 | 0.61 | 0.51 | 43 | 1008.1 |
| 20260506020604 | 18 | 131 | 6.4 | 11.3 | 0.00 | 0.61 | 0.51 | 43 | 1008.1 |
| 20260506020503 | 18 | 133 | 6.4 | 11.3 | 0.00 | 0.61 | 0.51 | 43 | 1008.0 |
| 20260506020404 | 18 | 130 | 6.4 | 11.3 | 0.00 | 0.61 | 0.51 | 43 | 1008.1 |
| 20260506020204 | 18 | 123 | 6.4 | 11.3 | 0.00 | 0.61 | 0.51 | 43 | 1008.0 |
| 20260506015904 | 18 | 123 | 4.8 | 9.7 | 0.00 | 0.61 | 0.51 | 43 | 1008.0 |
| 20260506015703 | 18 | 135 | 3.2 | 11.3 | 0.00 | 0.61 | 0.51 | 43 | 1008.1 |
| 20260506015604 | 18 | 132 | 3.2 | 11.3 | 0.00 | 0.61 | 0.51 | 42 | 1008.1 |
| 20260506015203 | 18 | 130 | 3.2 | 11.3 | 0.00 | 0.61 | 0.51 | 42 | 1008.0 |
| 20260506015104 | 18 | 117 | 3.2 | 11.3 | 0.00 | 0.61 | 0.51 | 41 | 1008.0 |
| 20260506014904 | 18 | 122 | 4.8 | 11.3 | 0.00 | 0.61 | 0.51 | 40 | 1008.0 |
| 20260506014804 | 18 | 113 | 4.8 | 9.7 | 0.00 | 0.61 | 0.51 | 41 | 1007.9 |
| 20260506014704 | 18 | 117 | 3.2 | 9.7 | 0.00 | 0.61 | 0.51 | 41 | 1008.0 |
| 20260506014604 | 18 | 120 | 3.2 | 9.7 | 0.00 | 0.61 | 0.51 | 41 | 1008.0 |
| 20260506014503 | 18 | 125 | 3.2 | 9.7 | 0.00 | 0.61 | 0.51 | 41 | 1008.1 |
| 20260506014404 | 18 | 137 | 3.2 | 9.7 | 0.00 | 0.61 | 0.51 | 41 | 1008.0 |
| 20260506014304 | 18 | 130 | 3.2 | 9.7 | 0.00 | 0.61 | 0.51 | 41 | 1008.0 |
| 20260506014204 | 18 | 124 | 3.2 | 9.7 | 0.00 | 0.61 | 0.51 | 41 | 1007.9 |
| 20260506013804 | 18 | 126 | 3.2 | 9.7 | 0.00 | 0.61 | 0.51 | 40 | 1008.0 |
| 20260506013604 | 18 | 135 | 3.2 | 9.7 | 0.00 | 0.61 | 0.51 | 40 | 1008.0 |
| 20260506013503 | 18 | 134 | 3.2 | 9.7 | 0.00 | 0.61 | 0.51 | 41 | 1008.0 |
| 20260506013404 | 18 | 133 | 3.2 | 11.3 | 0.00 | 0.61 | 0.51 | 41 | 1008.1 |
| 20260506013303 | 18 | 140 | 3.2 | 11.3 | 0.00 | 0.61 | 0.51 | 41 | 1008.1 |
| 20260506013104 | 18 | 142 | 3.2 | 11.3 | 0.00 | 0.61 | 0.51 | 40 | 1008.0 |
| 20260506013003 | 18 | 148 | 3.2 | 11.3 | 0.00 | 0.61 | 0.51 | 40 | 1008.1 |
| 20260506012903 | 18 | 175 | 4.8 | 11.3 | 0.00 | 0.61 | 0.51 | 40 | 1008.1 |
| 20260506012503 | 18 | 310 | 4.8 | 11.3 | 0.00 | 0.61 | 0.51 | 39 | 1008.1 |
| 20260506012405 | 18 | 311 | 3.2 | 11.3 | 0.00 | 0.61 | 0.51 | 39 | 1008.2 |
| 20260506012204 | 19 | 322 | 4.8 | 11.3 | 0.00 | 0.61 | 0.51 | 39 | 1008.2 |
| 20260506012104 | 19 | 326 | 4.8 | 11.3 | 0.00 | 0.61 | 0.51 | 39 | 1008.1 |
| 20260506012004 | 19 | 317 | 4.8 | 11.3 | 0.00 | 0.61 | 0.51 | 39 | 1008.2 |
| 20260506011903 | 19 | 316 | 4.8 | 11.3 | 0.00 | 0.61 | 0.51 | 39 | 1008.1 |
| 20260506011804 | 19 | 318 | 4.8 | 11.3 | 0.00 | 0.61 | 0.51 | 39 | 1008.1 |
| 20260506011704 | 19 | 350 | 4.8 | 11.3 | 0.00 | 0.61 | 0.51 | 39 | 1008.2 |
| 20260506011603 | 19 | 104 | 4.8 | 11.3 | 0.00 | 0.61 | 0.51 | 39 | 1008.1 |
| 20260506011504 | 19 | 106 | 4.8 | 11.3 | 0.00 | 0.61 | 0.51 | 39 | 1008.2 |
| 20260506011403 | 19 | 114 | 6.4 | 11.3 | 0.00 | 0.61 | 0.51 | 39 | 1008.2 |
| 20260506011304 | 19 | 122 | 4.8 | 9.7 | 0.00 | 0.61 | 0.51 | 38 | 1008.1 |
| 20260506011204 | 19 | 129 | 3.2 | 9.7 | 0.00 | 0.61 | 0.51 | 38 | 1008.2 |
| 20260506011004 | 19 | 114 | 3.2 | 9.7 | 0.00 | 0.61 | 0.51 | 38 | 1008.1 |
| 20260506010903 | 19 | 119 | 3.2 | 9.7 | 0.00 | 0.61 | 0.51 | 38 | 1008.2 |
| 20260506010804 | 19 | 124 | 3.2 | 9.7 | 0.00 | 0.61 | 0.51 | 37 | 1008.1 |
| 20260506010604 | 19 | 126 | 1.6 | 9.7 | 0.00 | 0.61 | 0.51 | 37 | 1008.1 |
| 20260506010504 | 19 | 137 | 4.8 | 9.7 | 0.00 | 0.61 | 0.51 | 37 | 1008.2 |
| 20260506010404 | 19 | 137 | 1.6 | 9.7 | 0.00 | 0.61 | 0.51 | 37 | 1008.1 |
| 20260506010304 | 19 | 136 | 3.2 | 9.7 | 0.00 | 0.61 | 0.51 | 37 | 1008.2 |
| 20260506010203 | 19 | 132 | 3.2 | 9.7 | 0.00 | 0.61 | 0.51 | 36 | 1008.2 |
| 20260506010104 | 19 | 137 | 3.2 | 9.7 | 0.00 | 0.61 | 0.51 | 37 | 1008.1 |
| 20260506010004 | 19 | 138 | 1.6 | 9.7 | 0.00 | 0.61 | 0.51 | 36 | 1008.2 |
| 20260506005904 | 19 | 133 | 1.6 | 9.7 | 0.00 | 0.61 | 0.51 | 36 | 1008.1 |
| 20260506005804 | 19 | 121 | 1.6 | 9.7 | 0.00 | 0.61 | 0.51 | 36 | 1008.2 |
| 20260506005704 | 19 | 119 | 3.2 | 9.7 | 0.00 | 0.61 | 0.51 | 37 | 1008.1 |
| 20260506005604 | 19 | 121 | 3.2 | 8.0 | 0.00 | 0.61 | 0.51 | 37 | 1008.2 |
| 20260506005504 | 19 | 121 | 3.2 | 8.0 | 0.00 | 0.61 | 0.51 | 37 | 1008.3 |
| 20260506005404 | 19 | 128 | 3.2 | 8.0 | 0.00 | 0.61 | 0.51 | 37 | 1008.1 |
| 20260506005305 | 19 | 128 | 3.2 | 8.0 | 0.00 | 0.61 | 0.51 | 37 | 1008.1 |
| 20260506005204 | 19 | 129 | 3.2 | 9.7 | 0.00 | 0.61 | 0.51 | 37 | 1008.2 |
| 20260506005104 | 19 | 130 | 3.2 | 9.7 | 0.00 | 0.61 | 0.51 | 37 | 1008.2 |
| 20260506005004 | 19 | 130 | 3.2 | 9.7 | 0.00 | 0.61 | 0.51 | 37 | 1008.3 |
| 20260506004904 | 19 | 134 | 4.8 | 11.3 | 0.00 | 0.61 | 0.51 | 37 | 1008.3 |
| 20260506004803 | 19 | 138 | 3.2 | 11.3 | 0.00 | 0.61 | 0.51 | 38 | 1008.2 |
| 20260506004704 | 19 | 137 | 3.2 | 11.3 | 0.00 | 0.61 | 0.51 | 38 | 1008.4 |
| 20260506004604 | 19 | 131 | 3.2 | 11.3 | 0.00 | 0.61 | 0.51 | 38 | 1008.2 |
| 20260506004503 | 19 | 128 | 3.2 | 11.3 | 0.00 | 0.61 | 0.51 | 38 | 1008.3 |
| 20260506004304 | 19 | 127 | 6.4 | 11.3 | 0.00 | 0.61 | 0.51 | 38 | 1008.3 |
| 20260506004204 | 19 | 124 | 4.8 | 11.3 | 0.00 | 0.61 | 0.51 | 38 | 1008.3 |
| 20260506004104 | 19 | 124 | 4.8 | 11.3 | 0.00 | 0.61 | 0.51 | 38 | 1008.2 |
| 20260506004003 | 19 | 124 | 3.2 | 11.3 | 0.00 | 0.61 | 0.51 | 38 | 1008.2 |
| 20260506003904 | 19 | 121 | 6.4 | 11.3 | 0.00 | 0.61 | 0.51 | 38 | 1008.1 |
| 20260506003803 | 19 | 120 | 4.8 | 11.3 | 0.00 | 0.61 | 0.51 | 38 | 1008.3 |
| 20260506003703 | 19 | 124 | 4.8 | 11.3 | 0.00 | 0.61 | 0.51 | 37 | 1008.2 |
| 20260506003604 | 19 | 129 | 3.2 | 11.3 | 0.00 | 0.61 | 0.51 | 38 | 1008.2 |
| 20260506003503 | 19 | 130 | 3.2 | 12.9 | 0.00 | 0.61 | 0.51 | 38 | 1008.2 |
| 20260506003404 | 19 | 133 | 3.2 | 12.9 | 0.00 | 0.61 | 0.51 | 38 | 1008.2 |
| 20260506003303 | 19 | 131 | 6.4 | 12.9 | 0.00 | 0.61 | 0.51 | 38 | 1008.2 |
| 20260506003203 | 19 | 131 | 3.2 | 12.9 | 0.00 | 0.61 | 0.51 | 38 | 1008.2 |
| 20260506003105 | 19 | 132 | 3.2 | 12.9 | 0.00 | 0.61 | 0.51 | 38 | 1008.2 |
| 20260506003004 | 19 | 133 | 3.2 | 12.9 | 0.00 | 0.61 | 0.51 | 38 | 1008.2 |
| 20260506002804 | 19 | 136 | 6.4 | 12.9 | 0.00 | 0.61 | 0.51 | 38 | 1008.2 |
| 20260506002703 | 19 | 136 | 4.8 | 12.9 | 0.00 | 0.61 | 0.51 | 38 | 1008.3 |
| 20260506002505 | 20 | 136 | 6.4 | 12.9 | 0.00 | 0.61 | 0.51 | 37 | 1008.2 |
| 20260506002404 | 19 | 136 | 3.2 | 19.3 | 0.00 | 0.61 | 0.51 | 38 | 1008.2 |
| 20260506002203 | 20 | 134 | 3.2 | 19.3 | 0.00 | 0.61 | 0.51 | 38 | 1008.2 |
| 20260506002104 | 20 | 136 | 4.8 | 19.3 | 0.00 | 0.61 | 0.51 | 38 | 1008.3 |
| 20260506002003 | 20 | 137 | 6.4 | 19.3 | 0.00 | 0.61 | 0.51 | 38 | 1008.1 |
| 20260506001904 | 20 | 137 | 6.4 | 19.3 | 0.00 | 0.61 | 0.51 | 38 | 1008.2 |
| 20260506001803 | 20 | 136 | 6.4 | 19.3 | 0.00 | 0.61 | 0.51 | 38 | 1008.3 |
| 20260506001704 | 20 | 136 | 6.4 | 19.3 | 0.00 | 0.61 | 0.51 | 38 | 1008.2 |
| 20260506001604 | 20 | 136 | 6.4 | 19.3 | 0.00 | 0.61 | 0.51 | 38 | 1008.1 |
| 20260506001504 | 20 | 139 | 6.4 | 19.3 | 0.00 | 0.61 | 0.51 | 38 | 1008.1 |
| 20260506001404 | 20 | 133 | 12.9 | 19.3 | 0.00 | 0.61 | 0.51 | 38 | 1008.2 |
| 20260506001103 | 20 | 118 | 4.8 | 12.9 | 0.00 | 0.61 | 0.51 | 38 | 1008.2 |
| 20260506001004 | 20 | 111 | 3.2 | 12.9 | 0.00 | 0.61 | 0.51 | 38 | 1007.9 |
| 20260506000904 | 20 | 109 | 4.8 | 12.9 | 0.00 | 0.61 | 0.51 | 38 | 1008.1 |
| 20260506000803 | 20 | 104 | 6.4 | 12.9 | 0.00 | 0.61 | 0.51 | 38 | 1008.1 |
| 20260506000704 | 20 | 101 | 3.2 | 12.9 | 0.00 | 0.61 | 0.51 | 38 | 1008.1 |
| 20260506000603 | 20 | 102 | 3.2 | 12.9 | 0.00 | 0.61 | 0.51 | 37 | 1008.1 |
| 20260506000504 | 20 | 100 | 1.6 | 12.9 | 0.00 | 0.61 | 0.51 | 36 | 1008.1 |
| 20260506000303 | 20 | 103 | 4.8 | 12.9 | 0.00 | 0.61 | 0.51 | 38 | 1008.2 |
| 20260506000205 | 20 | 96 | 6.4 | 12.9 | 0.00 | 0.61 | 0.51 | 38 | 1008.2 |
| 20260506000103 | 20 | 87 | 6.4 | 9.7 | 0.00 | 0.61 | 0.51 | 37 | 1008.2 |
| 20260506000003 | 20 | 51 | 3.2 | 11.3 | 0.00 | 0.61 | 0.51 | 37 | 1008.1 |
| 20260505235904 | 20 | 34 | 6.4 | 11.3 | 0.00 | 0.61 | 0.51 | 37 | 1008.1 |
| 20260505235803 | 20 | 51 | 3.2 | 11.3 | 0.00 | 0.61 | 0.51 | 36 | 1008.2 |
| 20260505235603 | 20 | 31 | 3.2 | 11.3 | 0.00 | 0.61 | 0.51 | 36 | 1008.1 |
| 20260505235404 | 20 | 23 | 6.4 | 11.3 | 0.00 | 0.61 | 0.51 | 35 | 1008.2 |
| 20260505235305 | 20 | 0 | 0.0 | 11.3 | 0.00 | 0.61 | 0.51 | 35 | 1008.2 |
| 20260505235204 | 20 | 18 | 3.2 | 11.3 | 0.00 | 0.61 | 0.51 | 35 | 1008.1 |
| 20260505235103 | 20 | 11 | 3.2 | 11.3 | 0.00 | 0.61 | 0.51 | 34 | 1008.2 |
| 20260505235004 | 20 | 5 | 4.8 | 11.3 | 0.00 | 0.61 | 0.51 | 35 | 1008.0 |
| 20260505234903 | 20 | 351 | 3.2 | 11.3 | 0.00 | 0.61 | 0.51 | 37 | 1008.0 |
| 20260505234804 | 20 | 337 | 3.2 | 12.9 | 0.00 | 0.61 | 0.51 | 37 | 1008.0 |
| 20260505234704 | 20 | 331 | 1.6 | 12.9 | 0.00 | 0.61 | 0.51 | 35 | 1008.0 |
| 20260505234604 | 20 | 334 | 3.2 | 12.9 | 0.00 | 0.61 | 0.51 | 35 | 1008.0 |
| 20260505234504 | 20 | 339 | 3.2 | 12.9 | 0.00 | 0.61 | 0.51 | 35 | 1008.1 |
| 20260505234404 | 20 | 340 | 3.2 | 12.9 | 0.00 | 0.61 | 0.51 | 38 | 1008.2 |
| 20260505234304 | 19 | 339 | 3.2 | 12.9 | 0.00 | 0.61 | 0.51 | 37 | 1008.0 |
| 20260505234204 | 19 | 339 | 3.2 | 12.9 | 0.00 | 0.61 | 0.51 | 35 | 1008.1 |
| 20260505234104 | 19 | 346 | 6.4 | 12.9 | 0.00 | 0.61 | 0.51 | 36 | 1008.1 |
| 20260505234003 | 19 | 338 | 6.4 | 16.1 | 0.00 | 0.61 | 0.51 | 36 | 1008.1 |
| 20260505233904 | 20 | 336 | 6.4 | 16.1 | 0.00 | 0.61 | 0.51 | 36 | 1008.2 |
| 20260505233804 | 19 | 335 | 6.4 | 16.1 | 0.00 | 0.61 | 0.51 | 35 | 1008.1 |
| 20260505233704 | 19 | 333 | 1.6 | 16.1 | 0.00 | 0.61 | 0.51 | 36 | 1008.2 |
| 20260505233603 | 19 | 330 | 1.6 | 16.1 | 0.00 | 0.61 | 0.51 | 36 | 1008.1 |
| 20260505233504 | 19 | 331 | 3.2 | 16.1 | 0.00 | 0.61 | 0.51 | 36 | 1008.2 |
| 20260505233403 | 20 | 336 | 6.4 | 16.1 | 0.00 | 0.61 | 0.51 | 36 | 1008.2 |
| 20260505233304 | 20 | 344 | 6.4 | 16.1 | 0.00 | 0.61 | 0.51 | 37 | 1008.3 |
| 20260505233203 | 20 | 341 | 6.4 | 16.1 | 0.00 | 0.61 | 0.51 | 34 | 1008.3 |
| 20260505233104 | 20 | 323 | 9.7 | 16.1 | 0.00 | 0.61 | 0.51 | 37 | 1008.2 |
| 20260505233004 | 20 | 331 | 9.7 | 16.1 | 0.00 | 0.61 | 0.51 | 37 | 1008.2 |
| 20260505232903 | 20 | 334 | 6.4 | 12.9 | 0.00 | 0.61 | 0.51 | 37 | 1008.2 |
| 20260505232804 | 20 | 335 | 3.2 | 12.9 | 0.00 | 0.61 | 0.51 | 38 | 1008.2 |
| 20260505232703 | 19 | 333 | 3.2 | 12.9 | 0.00 | 0.61 | 0.51 | 38 | 1008.2 |
| 20260505232504 | 19 | 340 | 1.6 | 12.9 | 0.00 | 0.61 | 0.51 | 38 | 1008.3 |
| 20260505232403 | 19 | 339 | 3.2 | 12.9 | 0.00 | 0.61 | 0.51 | 37 | 1008.3 |
| 20260505232204 | 19 | 336 | 4.8 | 12.9 | 0.00 | 0.61 | 0.51 | 38 | 1008.4 |
| 20260505232103 | 19 | 338 | 6.4 | 12.9 | 0.00 | 0.61 | 0.51 | 39 | 1008.4 |
| 20260505232004 | 19 | 331 | 6.4 | 12.9 | 0.00 | 0.61 | 0.51 | 40 | 1008.3 |
| 20260505231904 | 19 | 325 | 6.4 | 12.9 | 0.00 | 0.61 | 0.51 | 40 | 1008.4 |
| 20260505231804 | 19 | 322 | 6.4 | 12.9 | 0.00 | 0.64 | 0.51 | 42 | 1008.4 |
| 20260505231704 | 19 | 319 | 6.4 | 11.3 | 0.00 | 0.64 | 0.51 | 40 | 1008.4 |
| 20260505231603 | 18 | 310 | 6.4 | 11.3 | 0.00 | 0.64 | 0.51 | 42 | 1008.4 |
| 20260505231504 | 18 | 302 | 6.4 | 11.3 | 0.00 | 0.64 | 0.51 | 42 | 1008.4 |
| 20260505231403 | 18 | 290 | 3.2 | 8.0 | 0.00 | 0.64 | 0.51 | 41 | 1008.5 |
| 20260505231304 | 18 | 279 | 3.2 | 11.3 | 0.00 | 0.64 | 0.51 | 42 | 1008.4 |
| 20260505231105 | 18 | 278 | 3.2 | 11.3 | 0.00 | 0.64 | 0.51 | 42 | 1008.4 |
| 20260505231004 | 18 | 280 | 3.2 | 11.3 | 0.00 | 0.64 | 0.51 | 41 | 1008.4 |
| 20260505230904 | 18 | 286 | 3.2 | 11.3 | 0.00 | 0.64 | 0.51 | 40 | 1008.4 |
| 20260505230803 | 18 | 291 | 3.2 | 11.3 | 0.00 | 0.64 | 0.51 | 42 | 1008.5 |
| 20260505230704 | 18 | 295 | 3.2 | 11.3 | 0.00 | 0.64 | 0.51 | 42 | 1008.3 |
| 20260505230604 | 18 | 295 | 3.2 | 11.3 | 0.00 | 0.64 | 0.51 | 44 | 1008.4 |
| 20260505230503 | 18 | 296 | 3.2 | 12.9 | 0.00 | 0.64 | 0.51 | 43 | 1008.3 |
| 20260505230404 | 18 | 298 | 6.4 | 12.9 | 0.00 | 0.64 | 0.51 | 41 | 1008.3 |
| 20260505230204 | 18 | 306 | 6.4 | 12.9 | 0.00 | 0.64 | 0.51 | 41 | 1008.3 |
| 20260505230104 | 18 | 305 | 4.8 | 12.9 | 0.00 | 0.64 | 0.51 | 41 | 1008.4 |
| 20260505225904 | 18 | 306 | 4.8 | 12.9 | 0.00 | 0.64 | 0.51 | 43 | 1008.3 |
| 20260505225704 | 18 | 299 | 4.8 | 12.9 | 0.00 | 0.64 | 0.51 | 42 | 1008.3 |
| 20260505225604 | 18 | 298 | 6.4 | 12.9 | 0.00 | 0.64 | 0.51 | 43 | 1008.3 |
| 20260505225504 | 18 | 291 | 6.4 | 12.9 | 0.00 | 0.64 | 0.51 | 43 | 1008.4 |
| 20260505225404 | 18 | 292 | 4.8 | 12.9 | 0.00 | 0.64 | 0.51 | 43 | 1008.3 |
| 20260505225305 | 18 | 292 | 4.8 | 12.9 | 0.00 | 0.64 | 0.51 | 43 | 1008.4 |
| 20260505225204 | 18 | 287 | 4.8 | 12.9 | 0.00 | 0.64 | 0.51 | 43 | 1008.3 |
| 20260505225103 | 18 | 289 | 6.4 | 12.9 | 0.00 | 0.64 | 0.51 | 44 | 1008.4 |
| 20260505225003 | 18 | 283 | 6.4 | 12.9 | 0.00 | 0.64 | 0.51 | 43 | 1008.4 |
| 20260505224904 | 18 | 282 | 6.4 | 12.9 | 0.00 | 0.64 | 0.51 | 41 | 1008.4 |
| 20260505224804 | 18 | 280 | 3.2 | 12.9 | 0.00 | 0.64 | 0.51 | 44 | 1008.4 |
| 20260505224604 | 18 | 270 | 6.4 | 12.9 | 0.00 | 0.64 | 0.51 | 42 | 1008.3 |
| 20260505224503 | 18 | 264 | 6.4 | 12.9 | 0.00 | 0.64 | 0.51 | 42 | 1008.4 |
| 20260505224404 | 18 | 244 | 4.8 | 12.9 | 0.00 | 0.64 | 0.51 | 45 | 1008.4 |
| 20260505224304 | 18 | 216 | 9.7 | 12.9 | 0.00 | 0.64 | 0.51 | 43 | 1008.4 |
| 20260505224204 | 18 | 182 | 8.0 | 12.9 | 0.00 | 0.64 | 0.51 | 44 | 1008.4 |
| 20260505224104 | 18 | 157 | 4.8 | 9.7 | 0.00 | 0.64 | 0.51 | 44 | 1008.3 |
| 20260505224004 | 17 | 148 | 1.6 | 9.7 | 0.00 | 0.64 | 0.51 | 45 | 1008.5 |
| 20260505223904 | 17 | 167 | 4.8 | 9.7 | 0.00 | 0.64 | 0.51 | 45 | 1008.4 |
| 20260505223804 | 17 | 145 | 3.2 | 8.0 | 0.00 | 0.64 | 0.51 | 45 | 1008.4 |
| 20260505223704 | 17 | 146 | 3.2 | 6.4 | 0.00 | 0.64 | 0.51 | 45 | 1008.4 |
| 20260505223603 | 17 | 168 | 3.2 | 6.4 | 0.00 | 0.64 | 0.51 | 45 | 1008.5 |
| 20260505223504 | 17 | 203 | 3.2 | 6.4 | 0.00 | 0.64 | 0.51 | 45 | 1008.5 |
| 20260505223404 | 17 | 0 | 0.0 | 6.4 | 0.00 | 0.64 | 0.51 | 44 | 1008.5 |
| 20260505223104 | 16 | 232 | 3.2 | 11.3 | 0.00 | 0.66 | 0.51 | 46 | 1009.1 |
| 20260505223004 | 16 | 232 | 3.2 | 11.3 | 0.00 | 0.69 | 0.51 | 46 | 1009.1 |
| 20260505222903 | 16 | 232 | 3.2 | 11.3 | 0.00 | 0.69 | 0.51 | 46 | 1009.1 |
| 20260505222804 | 16 | 232 | 3.2 | 11.3 | 0.00 | 0.69 | 0.51 | 46 | 1009.1 |
| 20260505222703 | 16 | 232 | 3.2 | 11.3 | 0.00 | 0.69 | 0.51 | 46 | 1009.1 |
| 20260505222604 | 16 | 232 | 3.2 | 11.3 | 0.00 | 0.69 | 0.51 | 46 | 1009.1 |
| 20260505222504 | 16 | 232 | 3.2 | 11.3 | 0.00 | 0.69 | 0.51 | 46 | 1009.1 |
| 20260505222403 | 16 | 232 | 3.2 | 11.3 | 0.00 | 0.69 | 0.51 | 46 | 1009.1 |
| 20260505222306 | 16 | 232 | 3.2 | 11.3 | 0.00 | 0.69 | 0.51 | 46 | 1009.1 |
| 20260505222204 | 16 | 232 | 3.2 | 11.3 | 0.00 | 0.71 | 0.51 | 46 | 1009.1 |
| 20260505222103 | 16 | 232 | 3.2 | 11.3 | 0.00 | 0.71 | 0.51 | 46 | 1009.1 |
| 20260505221804 | 16 | 232 | 3.2 | 11.3 | 0.00 | 0.71 | 0.51 | 46 | 1009.1 |
| 20260505221704 | 16 | 232 | 3.2 | 11.3 | 0.00 | 0.76 | 0.51 | 46 | 1009.1 |
| 20260505221504 | 16 | 232 | 3.2 | 11.3 | 0.00 | 0.76 | 0.51 | 46 | 1009.1 |
| 20260505221404 | 16 | 232 | 3.2 | 11.3 | 0.00 | 0.76 | 0.51 | 46 | 1009.1 |
| 20260505221304 | 16 | 232 | 3.2 | 11.3 | 0.00 | 0.76 | 0.51 | 46 | 1009.1 |
| 20260505221103 | 16 | 232 | 3.2 | 11.3 | 0.00 | 0.76 | 0.51 | 46 | 1009.1 |
| 20260505221004 | 16 | 232 | 3.2 | 11.3 | 0.00 | 0.76 | 0.51 | 46 | 1009.1 |
| 20260505220904 | 16 | 232 | 3.2 | 11.3 | 0.00 | 0.76 | 0.51 | 46 | 1009.1 |
| 20260505220804 | 16 | 232 | 3.2 | 11.3 | 0.00 | 0.76 | 0.51 | 46 | 1009.1 |
| 20260505220704 | 16 | 232 | 3.2 | 11.3 | 0.00 | 0.76 | 0.51 | 46 | 1009.1 |
| 20260505220603 | 16 | 232 | 3.2 | 11.3 | 0.00 | 0.76 | 0.51 | 46 | 1009.1 |
| 20260505220404 | 16 | 232 | 3.2 | 11.3 | 0.00 | 0.76 | 0.51 | 46 | 1009.1 |
| 20260505220304 | 16 | 232 | 3.2 | 11.3 | 0.00 | 0.76 | 0.51 | 46 | 1009.1 |
| 20260505220204 | 16 | 232 | 3.2 | 11.3 | 0.00 | 0.76 | 0.51 | 46 | 1009.1 |
| 20260505220104 | 16 | 232 | 3.2 | 11.3 | 0.00 | 0.76 | 0.51 | 46 | 1009.1 |
| 20260505220004 | 16 | 232 | 3.2 | 11.3 | 0.00 | 0.76 | 0.51 | 46 | 1009.1 |
| 20260505215903 | 16 | 232 | 3.2 | 11.3 | 0.00 | 0.76 | 0.51 | 46 | 1009.1 |
| 20260505215704 | 16 | 232 | 3.2 | 11.3 | 0.00 | 0.76 | 0.51 | 46 | 1009.1 |
| 20260505215604 | 16 | 232 | 3.2 | 11.3 | 0.00 | 0.76 | 0.51 | 46 | 1009.1 |
| 20260505215504 | 16 | 232 | 3.2 | 11.3 | 0.00 | 0.76 | 0.51 | 46 | 1009.1 |
| 20260505215403 | 16 | 232 | 3.2 | 11.3 | 0.00 | 0.76 | 0.51 | 46 | 1009.1 |
| 20260505215203 | 16 | 232 | 3.2 | 11.3 | 0.00 | 0.76 | 0.51 | 46 | 1009.1 |
| 20260505215104 | 16 | 232 | 3.2 | 11.3 | 0.00 | 0.76 | 0.51 | 46 | 1009.1 |
| 20260505215004 | 16 | 232 | 3.2 | 11.3 | 0.00 | 0.76 | 0.51 | 46 | 1009.1 |
| 20260505214804 | 16 | 232 | 3.2 | 11.3 | 0.00 | 0.76 | 0.51 | 46 | 1009.1 |
| 20260505214704 | 16 | 232 | 3.2 | 11.3 | 0.00 | 0.76 | 0.51 | 46 | 1009.1 |
| 20260505214304 | 16 | 232 | 3.2 | 11.3 | 0.00 | 0.76 | 0.51 | 46 | 1009.1 |
| 20260505214203 | 16 | 232 | 3.2 | 11.3 | 0.00 | 0.76 | 0.51 | 46 | 1009.1 |
| 20260505214104 | 16 | 232 | 3.2 | 11.3 | 0.00 | 0.76 | 0.51 | 46 | 1009.1 |
| 20260505213904 | 16 | 232 | 3.2 | 11.3 | 0.00 | 0.76 | 0.51 | 46 | 1009.1 |
| 20260505213804 | 16 | 232 | 3.2 | 11.3 | 0.00 | 0.76 | 0.51 | 46 | 1009.1 |
| 20260505213704 | 16 | 232 | 3.2 | 11.3 | 0.00 | 0.76 | 0.51 | 46 | 1009.1 |
| 20260505213604 | 16 | 232 | 3.2 | 11.3 | 0.00 | 0.76 | 0.51 | 46 | 1009.1 |
| 20260505213404 | 16 | 232 | 3.2 | 11.3 | 0.00 | 0.76 | 0.51 | 46 | 1009.1 |
| 20260505213303 | 16 | 232 | 3.2 | 11.3 | 0.00 | 0.76 | 0.51 | 46 | 1009.1 |
| 20260505213204 | 16 | 232 | 3.2 | 11.3 | 0.00 | 0.76 | 0.51 | 46 | 1009.1 |
| 20260505213104 | 16 | 232 | 3.2 | 11.3 | 0.00 | 0.76 | 0.51 | 46 | 1009.1 |
| 20260505213003 | 16 | 233 | 3.2 | 11.3 | 0.00 | 0.76 | 0.51 | 46 | 1009.2 |
| 20260505212904 | 16 | 241 | 3.2 | 11.3 | 0.00 | 0.76 | 0.51 | 45 | 1009.1 |
| 20260505212803 | 16 | 242 | 6.4 | 12.9 | 0.00 | 0.76 | 0.51 | 45 | 1009.2 |
| 20260505212704 | 16 | 241 | 4.8 | 12.9 | 0.00 | 0.76 | 0.51 | 46 | 1009.3 |
| 20260505212504 | 16 | 236 | 6.4 | 12.9 | 0.00 | 0.76 | 0.51 | 45 | 1009.3 |
| 20260505212404 | 16 | 230 | 4.8 | 12.9 | 0.00 | 0.76 | 0.51 | 46 | 1009.3 |
| 20260505212305 | 16 | 225 | 4.8 | 12.9 | 0.00 | 0.76 | 0.51 | 46 | 1009.2 |
| 20260505212205 | 17 | 223 | 3.2 | 12.9 | 0.00 | 0.76 | 0.51 | 47 | 1009.3 |
| 20260505212103 | 17 | 214 | 3.2 | 12.9 | 0.00 | 0.76 | 0.51 | 47 | 1009.3 |
| 20260505212004 | 17 | 214 | 6.4 | 12.9 | 0.00 | 0.76 | 0.51 | 47 | 1009.3 |
| 20260505211804 | 17 | 201 | 6.4 | 12.9 | 0.00 | 0.76 | 0.51 | 46 | 1009.2 |
| 20260505211704 | 17 | 196 | 4.8 | 8.0 | 0.00 | 0.76 | 0.51 | 47 | 1009.3 |
| 20260505211604 | 16 | 190 | 1.6 | 8.0 | 0.00 | 0.76 | 0.51 | 49 | 1009.2 |
| 20260505211504 | 16 | 187 | 1.6 | 8.0 | 0.00 | 0.76 | 0.51 | 49 | 1009.3 |
| 20260505211405 | 16 | 187 | 3.2 | 8.0 | 0.00 | 0.76 | 0.51 | 49 | 1009.3 |
| 20260505211203 | 16 | 171 | 1.6 | 8.0 | 0.00 | 0.76 | 0.51 | 48 | 1009.3 |
| 20260505211004 | 16 | 160 | 1.6 | 8.0 | 0.00 | 0.76 | 0.51 | 49 | 1009.3 |
| 20260505210903 | 16 | 145 | 3.2 | 8.0 | 0.00 | 0.76 | 0.51 | 48 | 1009.3 |
| 20260505210804 | 16 | 126 | 3.2 | 8.0 | 0.00 | 0.76 | 0.51 | 49 | 1009.2 |
| 20260505210703 | 16 | 121 | 3.2 | 8.0 | 0.00 | 0.76 | 0.51 | 50 | 1009.2 |
| 20260505210604 | 16 | 117 | 3.2 | 8.0 | 0.00 | 0.76 | 0.51 | 50 | 1009.2 |
| 20260505210503 | 16 | 105 | 3.2 | 8.0 | 0.00 | 0.76 | 0.51 | 50 | 1009.3 |
| 20260505210404 | 16 | 109 | 3.2 | 8.0 | 0.00 | 0.76 | 0.51 | 51 | 1009.3 |
| 20260505210304 | 16 | 117 | 3.2 | 8.0 | 0.00 | 0.76 | 0.51 | 51 | 1009.3 |
| 20260505210104 | 16 | 176 | 3.2 | 11.3 | 0.00 | 0.76 | 0.51 | 50 | 1009.3 |
| 20260505210004 | 16 | 205 | 4.8 | 11.3 | 0.00 | 0.76 | 0.51 | 50 | 1009.4 |
| 20260505205904 | 16 | 215 | 3.2 | 11.3 | 0.00 | 0.76 | 0.51 | 52 | 1009.3 |
| 20260505205803 | 16 | 217 | 3.2 | 11.3 | 0.00 | 0.76 | 0.51 | 52 | 1009.3 |
| 20260505205704 | 16 | 220 | 1.6 | 11.3 | 0.00 | 0.76 | 0.51 | 52 | 1009.4 |
| 20260505205604 | 16 | 220 | 1.6 | 11.3 | 0.00 | 0.76 | 0.51 | 51 | 1009.3 |
| 20260505205505 | 16 | 215 | 3.2 | 11.3 | 0.00 | 0.76 | 0.51 | 50 | 1009.4 |
| 20260505205404 | 16 | 218 | 1.6 | 11.3 | 0.00 | 0.76 | 0.51 | 50 | 1009.3 |
| 20260505205204 | 16 | 207 | 4.8 | 11.3 | 0.00 | 0.76 | 0.51 | 50 | 1009.3 |
| 20260505205003 | 16 | 196 | 3.2 | 11.3 | 0.00 | 0.76 | 0.51 | 52 | 1009.4 |
| 20260505204904 | 16 | 189 | 3.2 | 11.3 | 0.00 | 0.76 | 0.51 | 53 | 1009.4 |
| 20260505204803 | 16 | 195 | 1.6 | 6.4 | 0.00 | 0.76 | 0.51 | 54 | 1009.5 |
| 20260505204705 | 16 | 199 | 3.2 | 6.4 | 0.00 | 0.76 | 0.51 | 54 | 1009.5 |
| 20260505204604 | 16 | 204 | 3.2 | 6.4 | 0.00 | 0.76 | 0.51 | 54 | 1009.5 |
| 20260505204503 | 16 | 211 | 3.2 | 6.4 | 0.00 | 0.76 | 0.51 | 54 | 1009.5 |
| 20260505204404 | 16 | 197 | 3.2 | 6.4 | 0.00 | 0.76 | 0.51 | 53 | 1009.5 |
| 20260505204303 | 16 | 196 | 3.2 | 6.4 | 0.00 | 0.76 | 0.51 | 55 | 1009.4 |
| 20260505204204 | 16 | 187 | 1.6 | 6.4 | 0.00 | 0.76 | 0.51 | 55 | 1009.6 |
| 20260505204104 | 16 | 0 | 0.0 | 6.4 | 0.00 | 0.76 | 0.51 | 55 | 1009.6 |
| 20260505204004 | 16 | 166 | 3.2 | 6.4 | 0.00 | 0.76 | 0.51 | 54 | 1009.5 |
| 20260505203903 | 16 | 165 | 3.2 | 6.4 | 0.00 | 0.76 | 0.51 | 54 | 1009.5 |
| 20260505203804 | 16 | 0 | 0.0 | 11.3 | 0.00 | 0.76 | 0.51 | 56 | 1009.5 |
| 20260505203703 | 16 | 0 | 0.0 | 12.9 | 0.00 | 0.76 | 0.51 | 56 | 1009.6 |
| 20260505203604 | 16 | 203 | 1.6 | 12.9 | 0.00 | 0.76 | 0.51 | 56 | 1009.5 |
| 20260505203403 | 16 | 222 | 3.2 | 12.9 | 0.00 | 0.76 | 0.51 | 57 | 1009.6 |
| 20260505203304 | 15 | 224 | 1.6 | 12.9 | 0.00 | 0.76 | 0.51 | 58 | 1009.5 |
| 20260505203204 | 15 | 229 | 3.2 | 12.9 | 0.00 | 0.76 | 0.51 | 58 | 1009.5 |
| 20260505203104 | 15 | 237 | 1.6 | 12.9 | 0.00 | 0.76 | 0.51 | 56 | 1009.6 |
| 20260505203004 | 15 | 245 | 1.6 | 12.9 | 0.00 | 0.76 | 0.51 | 56 | 1009.6 |
| 20260505202904 | 15 | 241 | 3.2 | 12.9 | 0.00 | 0.76 | 0.51 | 55 | 1009.6 |
| 20260505202804 | 15 | 240 | 6.4 | 12.9 | 0.00 | 0.76 | 0.51 | 56 | 1009.6 |
| 20260505202604 | 15 | 234 | 3.2 | 12.9 | 0.00 | 0.76 | 0.51 | 59 | 1009.6 |
| 20260505202306 | 15 | 235 | 6.4 | 12.9 | 0.00 | 0.76 | 0.51 | 59 | 1009.6 |
| 20260505202203 | 15 | 238 | 6.4 | 12.9 | 0.00 | 0.76 | 0.51 | 60 | 1009.6 |
| 20260505202104 | 15 | 235 | 3.2 | 11.3 | 0.00 | 0.76 | 0.51 | 60 | 1009.6 |
| 20260505202004 | 15 | 245 | 3.2 | 11.3 | 0.00 | 0.76 | 0.51 | 59 | 1009.5 |
| 20260505201903 | 15 | 256 | 4.8 | 11.3 | 0.00 | 0.76 | 0.51 | 59 | 1009.6 |
| 20260505201804 | 15 | 264 | 8.0 | 11.3 | 0.00 | 0.76 | 0.51 | 59 | 1009.6 |
| 20260505201504 | 15 | 279 | 3.2 | 11.3 | 0.00 | 0.76 | 0.51 | 63 | 1009.6 |
| 20260505201403 | 15 | 289 | 3.2 | 11.3 | 0.00 | 0.76 | 0.51 | 61 | 1009.6 |
| 20260505201304 | 15 | 276 | 1.6 | 11.3 | 0.00 | 0.76 | 0.51 | 60 | 1009.7 |
| 20260505201203 | 15 | 283 | 3.2 | 11.3 | 0.00 | 0.76 | 0.51 | 60 | 1009.6 |
| 20260505201104 | 15 | 280 | 3.2 | 11.3 | 0.00 | 0.76 | 0.51 | 59 | 1009.7 |
| 20260505201004 | 15 | 274 | 6.4 | 11.3 | 0.00 | 0.76 | 0.51 | 59 | 1009.8 |
| 20260505200904 | 15 | 279 | 6.4 | 11.3 | 0.00 | 0.76 | 0.51 | 62 | 1009.7 |
| 20260505200804 | 15 | 250 | 3.2 | 6.4 | 0.00 | 0.76 | 0.51 | 62 | 1009.6 |
| 20260505200704 | 14 | 68 | 3.2 | 9.7 | 0.00 | 0.76 | 0.51 | 62 | 1009.6 |
| 20260505200604 | 14 | 54 | 1.6 | 9.7 | 0.00 | 0.76 | 0.51 | 62 | 1009.7 |
| 20260505200503 | 14 | 56 | 1.6 | 9.7 | 0.00 | 0.76 | 0.51 | 62 | 1009.7 |
| 20260505200404 | 14 | 63 | 3.2 | 9.7 | 0.00 | 0.76 | 0.51 | 62 | 1009.6 |
| 20260505200303 | 14 | 0 | 0.0 | 9.7 | 0.00 | 0.76 | 0.51 | 62 | 1009.7 |
| 20260505200204 | 14 | 72 | 1.6 | 9.7 | 0.00 | 0.76 | 0.51 | 62 | 1009.7 |
| 20260505200104 | 14 | 81 | 1.6 | 9.7 | 0.00 | 0.76 | 0.51 | 63 | 1009.7 |
| 20260505195903 | 14 | 89 | 1.6 | 9.7 | 0.00 | 0.76 | 0.51 | 63 | 1009.7 |
| 20260505195604 | 14 | 70 | 3.2 | 9.7 | 0.00 | 0.76 | 0.51 | 61 | 1009.7 |
| 20260505195504 | 14 | 73 | 6.4 | 9.7 | 0.00 | 0.76 | 0.51 | 63 | 1009.7 |
| 20260505195403 | 14 | 74 | 3.2 | 9.7 | 0.00 | 0.76 | 0.51 | 64 | 1009.7 |
| 20260505195305 | 14 | 67 | 3.2 | 9.7 | 0.00 | 0.76 | 0.51 | 65 | 1009.7 |
| 20260505195203 | 13 | 53 | 3.2 | 6.4 | 0.00 | 0.76 | 0.51 | 66 | 1009.7 |
| 20260505195104 | 13 | 356 | 3.2 | 8.0 | 0.00 | 0.76 | 0.51 | 66 | 1009.7 |
| 20260505195004 | 13 | 309 | 3.2 | 9.7 | 0.00 | 0.76 | 0.51 | 67 | 1009.7 |
| 20260505194903 | 15 | 278 | 4.8 | 12.9 | 0.00 | 0.76 | 0.51 | 67 | 1009.7 |
| 20260505194804 | 14 | 260 | 1.6 | 12.9 | 0.00 | 0.76 | 0.51 | 67 | 1009.7 |
| 20260505194703 | 13 | 256 | 3.2 | 12.9 | 0.00 | 0.76 | 0.51 | 67 | 1009.6 |
| 20260505194504 | 13 | 246 | 3.2 | 12.9 | 0.00 | 0.76 | 0.51 | 66 | 1009.7 |
| 20260505194403 | 13 | 248 | 3.2 | 12.9 | 0.00 | 0.76 | 0.51 | 66 | 1009.8 |
| 20260505194304 | 13 | 246 | 3.2 | 12.9 | 0.00 | 0.76 | 0.51 | 67 | 1009.7 |
| 20260505194204 | 13 | 241 | 3.2 | 12.9 | 0.00 | 0.76 | 0.51 | 65 | 1009.8 |
| 20260505194103 | 13 | 232 | 3.2 | 12.9 | 0.00 | 0.76 | 0.51 | 64 | 1009.7 |
| 20260505194004 | 13 | 231 | 9.7 | 12.9 | 0.00 | 0.76 | 0.51 | 66 | 1009.8 |
| 20260505193804 | 13 | 228 | 6.4 | 11.3 | 0.00 | 0.76 | 0.51 | 66 | 1009.7 |
| 20260505193704 | 13 | 223 | 1.6 | 11.3 | 0.00 | 0.76 | 0.51 | 65 | 1009.7 |
| 20260505193604 | 13 | 0 | 0.0 | 11.3 | 0.00 | 0.76 | 0.51 | 64 | 1009.6 |
| 20260505193504 | 13 | 0 | 0.0 | 12.9 | 0.00 | 0.76 | 0.51 | 64 | 1009.7 |
| 20260505193304 | 13 | 224 | 3.2 | 12.9 | 0.00 | 0.76 | 0.51 | 64 | 1009.6 |
| 20260505193204 | 13 | 228 | 3.2 | 12.9 | 0.00 | 0.76 | 0.51 | 64 | 1009.6 |
| 20260505193004 | 13 | 237 | 3.2 | 12.9 | 0.00 | 0.76 | 0.51 | 65 | 1009.7 |
| 20260505192903 | 13 | 240 | 3.2 | 12.9 | 0.00 | 0.76 | 0.51 | 65 | 1009.7 |
| 20260505192704 | 13 | 229 | 6.4 | 12.9 | 0.00 | 0.76 | 0.51 | 65 | 1009.7 |
| 20260505192604 | 13 | 213 | 6.4 | 12.9 | 0.00 | 0.76 | 0.51 | 64 | 1009.7 |
| 20260505192504 | 13 | 194 | 6.4 | 12.9 | 0.00 | 0.76 | 0.51 | 64 | 1009.7 |
| 20260505192403 | 13 | 166 | 3.2 | 6.4 | 0.00 | 0.76 | 0.51 | 66 | 1009.7 |
| 20260505192205 | 13 | 0 | 0.0 | 6.4 | 0.00 | 0.76 | 0.51 | 66 | 1009.7 |
| 20260505192104 | 13 | 132 | 3.2 | 6.4 | 0.00 | 0.76 | 0.51 | 66 | 1009.8 |
| 20260505192004 | 13 | 124 | 1.6 | 8.0 | 0.00 | 0.76 | 0.51 | 68 | 1009.7 |
| 20260505191904 | 13 | 116 | 3.2 | 8.0 | 0.00 | 0.76 | 0.51 | 69 | 1009.7 |
| 20260505191804 | 13 | 117 | 4.8 | 8.0 | 0.00 | 0.76 | 0.51 | 69 | 1009.8 |
| 20260505191703 | 13 | 118 | 3.2 | 8.0 | 0.00 | 0.76 | 0.51 | 68 | 1009.7 |
| 20260505191604 | 13 | 123 | 4.8 | 8.0 | 0.00 | 0.76 | 0.51 | 70 | 1009.9 |
| 20260505191504 | 13 | 129 | 4.8 | 8.0 | 0.00 | 0.76 | 0.51 | 70 | 1009.8 |
| 20260505191404 | 12 | 134 | 3.2 | 8.0 | 0.00 | 0.76 | 0.51 | 70 | 1009.8 |
| 20260505191304 | 12 | 130 | 1.6 | 8.0 | 0.00 | 0.76 | 0.51 | 69 | 1009.8 |
| 20260505191203 | 12 | 149 | 1.6 | 8.0 | 0.00 | 0.76 | 0.51 | 69 | 1009.7 |
| 20260505191104 | 12 | 138 | 3.2 | 8.0 | 0.00 | 0.76 | 0.51 | 69 | 1009.6 |
| 20260505191004 | 12 | 135 | 3.2 | 8.0 | 0.00 | 0.76 | 0.51 | 70 | 1009.7 |
| 20260505190904 | 12 | 151 | 3.2 | 8.0 | 0.00 | 0.76 | 0.51 | 70 | 1009.7 |
| 20260505190704 | 12 | 164 | 1.6 | 6.4 | 0.00 | 0.76 | 0.51 | 70 | 1009.6 |
| 20260505190604 | 12 | 154 | 1.6 | 6.4 | 0.00 | 0.76 | 0.51 | 70 | 1009.7 |
| 20260505190504 | 12 | 143 | 1.6 | 6.4 | 0.00 | 0.76 | 0.51 | 71 | 1009.8 |
| 20260505190404 | 12 | 151 | 1.6 | 6.4 | 0.00 | 0.76 | 0.51 | 71 | 1009.8 |
| 20260505190304 | 12 | 170 | 1.6 | 6.4 | 0.00 | 0.76 | 0.51 | 72 | 1009.9 |
| 20260505190204 | 12 | 167 | 1.6 | 6.4 | 0.00 | 0.76 | 0.51 | 72 | 1009.8 |
| 20260505190104 | 12 | 178 | 3.2 | 6.4 | 0.00 | 0.76 | 0.51 | 73 | 1009.8 |
| 20260505190004 | 12 | 195 | 3.2 | 6.4 | 0.00 | 0.76 | 0.51 | 74 | 1009.9 |
| 20260505185903 | 12 | 214 | 1.6 | 4.8 | 0.03 | 0.76 | 0.51 | 74 | 1009.9 |
| 20260505185804 | 12 | 0 | 0.0 | 4.8 | 0.03 | 0.76 | 0.51 | 74 | 1009.9 |
| 20260505185704 | 11 | 0 | 0.0 | 8.0 | 0.03 | 0.76 | 0.51 | 74 | 1009.9 |
| 20260505185604 | 11 | 0 | 0.0 | 8.0 | 0.03 | 0.76 | 0.51 | 73 | 1009.9 |
| 20260505185504 | 11 | 0 | 0.0 | 8.0 | 0.03 | 0.76 | 0.51 | 73 | 1009.8 |
| 20260505185204 | 11 | 0 | 0.0 | 8.0 | 0.03 | 0.76 | 0.51 | 74 | 1009.8 |
| 20260505185104 | 11 | 0 | 0.0 | 8.0 | 0.03 | 0.76 | 0.51 | 74 | 1009.8 |
| 20260505185004 | 11 | 220 | 1.6 | 8.0 | 0.03 | 0.76 | 0.51 | 74 | 1009.7 |
| 20260505184904 | 11 | 221 | 1.6 | 8.0 | 0.03 | 0.76 | 0.51 | 74 | 1009.8 |
| 20260505184804 | 11 | 212 | 3.2 | 8.0 | 0.03 | 0.76 | 0.51 | 74 | 1009.9 |
| 20260505184704 | 11 | 0 | 0.0 | 4.8 | 0.03 | 0.76 | 0.51 | 74 | 1009.8 |
| 20260505184605 | 11 | 211 | 1.6 | 4.8 | 0.03 | 0.76 | 0.51 | 74 | 1009.8 |
| 20260505184504 | 11 | 192 | 1.6 | 6.4 | 0.03 | 0.76 | 0.51 | 74 | 1009.9 |
| 20260505184304 | 11 | 140 | 1.6 | 6.4 | 0.03 | 0.76 | 0.51 | 75 | 1009.9 |
| 20260505184204 | 11 | 0 | 0.0 | 6.4 | 0.03 | 0.76 | 0.51 | 75 | 1009.8 |
| 20260505184104 | 11 | 0 | 0.0 | 6.4 | 0.03 | 0.76 | 0.51 | 75 | 1009.7 |
| 20260505184004 | 11 | 130 | 1.6 | 6.4 | 0.03 | 0.76 | 0.51 | 76 | 1009.7 |
| 20260505183904 | 11 | 125 | 1.6 | 6.4 | 0.03 | 0.76 | 0.51 | 76 | 1009.7 |
| 20260505183804 | 11 | 125 | 1.6 | 6.4 | 0.03 | 0.76 | 0.51 | 77 | 1009.7 |
| 20260505183704 | 11 | 0 | 0.0 | 6.4 | 0.03 | 0.76 | 0.51 | 77 | 1009.7 |
| 20260505183604 | 10 | 132 | 1.6 | 6.4 | 0.03 | 0.76 | 0.51 | 77 | 1009.7 |
| 20260505183504 | 10 | 132 | 1.6 | 6.4 | 0.03 | 0.76 | 0.51 | 77 | 1009.7 |
| 20260505183404 | 10 | 0 | 0.0 | 6.4 | 0.03 | 0.76 | 0.51 | 77 | 1009.7 |
| 20260505183304 | 10 | 0 | 0.0 | 6.4 | 0.03 | 0.76 | 0.51 | 77 | 1009.6 |
| 20260505183204 | 10 | 0 | 0.0 | 6.4 | 0.03 | 0.76 | 0.51 | 76 | 1009.7 |
| 20260505183105 | 10 | 139 | 1.6 | 6.4 | 0.03 | 0.76 | 0.51 | 77 | 1009.6 |
| 20260505183004 | 10 | 141 | 1.6 | 6.4 | 0.03 | 0.76 | 0.51 | 77 | 1009.7 |
| 20260505182904 | 10 | 144 | 1.6 | 6.4 | 0.03 | 0.76 | 0.51 | 77 | 1009.7 |
| 20260505182804 | 10 | 0 | 0.0 | 3.2 | 0.03 | 0.76 | 0.51 | 77 | 1009.7 |
| 20260505182704 | 10 | 0 | 0.0 | 3.2 | 0.03 | 0.76 | 0.51 | 77 | 1009.8 |
| 20260505182604 | 10 | 0 | 0.0 | 3.2 | 0.03 | 0.76 | 0.51 | 77 | 1009.8 |
| 20260505182504 | 10 | 165 | 1.6 | 3.2 | 0.03 | 0.76 | 0.51 | 77 | 1009.8 |
| 20260505182405 | 10 | 0 | 0.0 | 4.8 | 0.03 | 0.76 | 0.51 | 76 | 1009.8 |
| 20260505182306 | 10 | 0 | 0.0 | 6.4 | 0.03 | 0.76 | 0.51 | 77 | 1009.7 |
| 20260505182205 | 10 | 0 | 0.0 | 6.4 | 0.03 | 0.76 | 0.51 | 77 | 1009.7 |
| 20260505182004 | 10 | 0 | 0.0 | 6.4 | 0.03 | 0.76 | 0.51 | 76 | 1009.6 |
| 20260505181904 | 10 | 0 | 0.0 | 6.4 | 0.03 | 0.76 | 0.51 | 76 | 1009.7 |
| 20260505181804 | 10 | 0 | 0.0 | 6.4 | 0.03 | 0.76 | 0.51 | 76 | 1009.7 |
| 20260505181704 | 10 | 0 | 0.0 | 6.4 | 0.03 | 0.76 | 0.51 | 76 | 1009.7 |
| 20260505181604 | 10 | 223 | 1.6 | 6.4 | 0.03 | 0.76 | 0.51 | 76 | 1009.6 |
| 20260505181504 | 10 | 224 | 1.6 | 6.4 | 0.03 | 0.76 | 0.51 | 76 | 1009.6 |
| 20260505181404 | 10 | 226 | 1.6 | 6.4 | 0.03 | 0.76 | 0.51 | 77 | 1009.6 |
| 20260505181305 | 10 | 232 | 3.2 | 6.4 | 0.03 | 0.76 | 0.51 | 77 | 1009.5 |
| 20260505181204 | 10 | 0 | 0.0 | 6.4 | 0.03 | 0.76 | 0.51 | 78 | 1009.4 |
| 20260505181104 | 10 | 222 | 1.6 | 6.4 | 0.03 | 0.76 | 0.51 | 78 | 1009.4 |
| 20260505181004 | 10 | 207 | 1.6 | 6.4 | 0.03 | 0.76 | 0.51 | 78 | 1009.5 |
| 20260505180805 | 10 | 188 | 3.2 | 6.4 | 0.03 | 0.76 | 0.51 | 78 | 1009.4 |
| 20260505180704 | 10 | 189 | 1.6 | 6.4 | 0.03 | 0.76 | 0.51 | 78 | 1009.5 |
| 20260505180605 | 10 | 191 | 3.2 | 6.4 | 0.03 | 0.76 | 0.51 | 77 | 1009.3 |
| 20260505180504 | 10 | 173 | 3.2 | 6.4 | 0.03 | 0.76 | 0.51 | 77 | 1009.4 |
| 20260505180404 | 10 | 153 | 3.2 | 4.8 | 0.03 | 0.76 | 0.51 | 79 | 1009.3 |
| 20260505180304 | 10 | 0 | 0.0 | 4.8 | 0.03 | 0.76 | 0.51 | 79 | 1009.4 |
| 20260505180204 | 10 | 130 | 1.6 | 4.8 | 0.03 | 0.76 | 0.51 | 79 | 1009.3 |
| 20260505180104 | 10 | 136 | 1.6 | 4.8 | 0.03 | 0.76 | 0.51 | 80 | 1009.3 |
| 20260505175905 | 10 | 0 | 0.0 | 4.8 | 0.00 | 0.71 | 0.48 | 80 | 1009.3 |
| 20260505175804 | 10 | 0 | 0.0 | 4.8 | 0.00 | 0.71 | 0.48 | 80 | 1009.4 |
| 20260505175704 | 10 | 0 | 0.0 | 4.8 | 0.00 | 0.71 | 0.48 | 80 | 1009.2 |
| 20260505175605 | 10 | 129 | 1.6 | 4.8 | 0.00 | 0.71 | 0.48 | 80 | 1009.3 |
| 20260505175504 | 10 | 137 | 1.6 | 4.8 | 0.00 | 0.71 | 0.48 | 80 | 1009.2 |
| 20260505175404 | 10 | 0 | 0.0 | 4.8 | 0.00 | 0.71 | 0.48 | 80 | 1009.3 |
| 20260505175305 | 10 | 0 | 0.0 | 4.8 | 0.00 | 0.71 | 0.48 | 80 | 1009.4 |
| 20260505175204 | 10 | 139 | 1.6 | 4.8 | 0.00 | 0.71 | 0.48 | 79 | 1009.3 |
| 20260505175105 | 10 | 0 | 0.0 | 4.8 | 0.00 | 0.71 | 0.48 | 79 | 1009.3 |
| 20260505175004 | 10 | 0 | 0.0 | 4.8 | 0.00 | 0.71 | 0.48 | 79 | 1009.3 |
| 20260505174905 | 10 | 134 | 1.6 | 4.8 | 0.00 | 0.71 | 0.48 | 79 | 1009.3 |
| 20260505174804 | 10 | 140 | 1.6 | 4.8 | 0.00 | 0.71 | 0.48 | 79 | 1009.3 |
| 20260505174604 | 10 | 0 | 0.0 | 4.8 | 0.00 | 0.71 | 0.48 | 79 | 1009.2 |
| 20260505174504 | 10 | 0 | 0.0 | 4.8 | 0.00 | 0.71 | 0.48 | 79 | 1009.2 |
| 20260505174304 | 10 | 149 | 1.6 | 4.8 | 0.00 | 0.71 | 0.48 | 79 | 1009.1 |
| 20260505174204 | 10 | 135 | 3.2 | 6.4 | 0.00 | 0.71 | 0.48 | 79 | 1009.2 |
| 20260505174105 | 10 | 130 | 3.2 | 6.4 | 0.00 | 0.71 | 0.48 | 79 | 1009.1 |
| 20260505174004 | 10 | 135 | 1.6 | 6.4 | 0.00 | 0.71 | 0.48 | 79 | 1009.1 |
| 20260505173804 | 10 | 139 | 1.6 | 6.4 | 0.00 | 0.71 | 0.48 | 79 | 1009.1 |
| 20260505173705 | 10 | 136 | 1.6 | 6.4 | 0.00 | 0.71 | 0.48 | 79 | 1009.0 |
| 20260505173604 | 10 | 0 | 0.0 | 6.4 | 0.00 | 0.71 | 0.48 | 79 | 1009.0 |
| 20260505173505 | 10 | 117 | 3.2 | 6.4 | 0.00 | 0.71 | 0.48 | 79 | 1009.0 |
| 20260505173404 | 10 | 117 | 3.2 | 6.4 | 0.00 | 0.71 | 0.48 | 78 | 1009.0 |
| 20260505173304 | 10 | 124 | 3.2 | 6.4 | 0.00 | 0.71 | 0.48 | 78 | 1008.9 |
| 20260505173205 | 10 | 174 | 1.6 | 3.2 | 0.00 | 0.71 | 0.48 | 78 | 1008.9 |
| 20260505173104 | 10 | 0 | 0.0 | 3.2 | 0.00 | 0.71 | 0.48 | 78 | 1008.9 |
| 20260505172905 | 10 | 0 | 0.0 | 6.4 | 0.00 | 0.71 | 0.48 | 78 | 1008.8 |
| 20260505172804 | 10 | 0 | 0.0 | 6.4 | 0.00 | 0.71 | 0.48 | 79 | 1008.8 |
| 20260505172705 | 10 | 0 | 0.0 | 6.4 | 0.00 | 0.71 | 0.48 | 79 | 1008.8 |
| 20260505172604 | 10 | 0 | 0.0 | 6.4 | 0.00 | 0.71 | 0.48 | 79 | 1008.8 |
| 20260505172504 | 10 | 0 | 0.0 | 6.4 | 0.00 | 0.71 | 0.48 | 79 | 1008.7 |
| 20260505172405 | 10 | 0 | 0.0 | 6.4 | 0.00 | 0.71 | 0.48 | 79 | 1008.7 |
| 20260505172306 | 10 | 0 | 0.0 | 6.4 | 0.00 | 0.71 | 0.48 | 79 | 1008.8 |
| 20260505172205 | 10 | 0 | 0.0 | 6.4 | 0.00 | 0.71 | 0.48 | 79 | 1008.8 |
| 20260505172104 | 10 | 0 | 0.0 | 6.4 | 0.00 | 0.71 | 0.48 | 79 | 1008.7 |
| 20260505172005 | 10 | 216 | 3.2 | 6.4 | 0.00 | 0.71 | 0.48 | 79 | 1008.6 |
| 20260505171805 | 10 | 210 | 3.2 | 6.4 | 0.00 | 0.71 | 0.48 | 80 | 1008.7 |
| 20260505171604 | 9 | 0 | 0.0 | 3.2 | 0.00 | 0.71 | 0.48 | 81 | 1008.9 |
| 20260505171505 | 9 | 0 | 0.0 | 3.2 | 0.00 | 0.71 | 0.48 | 81 | 1008.5 |
| 20260505171206 | 9 | 0 | 0.0 | 3.2 | 0.00 | 0.71 | 0.48 | 81 | 1008.8 |
| 20260505171104 | 9 | 0 | 0.0 | 3.2 | 0.00 | 0.71 | 0.48 | 81 | 1008.9 |
| 20260505171004 | 9 | 0 | 0.0 | 3.2 | 0.00 | 0.71 | 0.48 | 82 | 1008.8 |
| 20260505170804 | 9 | 0 | 0.0 | 3.2 | 0.00 | 0.71 | 0.48 | 83 | 1008.9 |
| 20260505170605 | 9 | 0 | 0.0 | 3.2 | 0.00 | 0.71 | 0.48 | 84 | 1009.0 |
| 20260505170504 | 9 | 0 | 0.0 | 3.2 | 0.00 | 0.71 | 0.48 | 84 | 1009.0 |
| 20260505170405 | 9 | 0 | 0.0 | 3.2 | 0.00 | 0.71 | 0.48 | 84 | 1008.9 |
| 20260505170304 | 9 | 0 | 0.0 | 4.8 | 0.00 | 0.71 | 0.48 | 84 | 1008.9 |
| 20260505170204 | 9 | 0 | 0.0 | 4.8 | 0.00 | 0.71 | 0.48 | 84 | 1008.9 |
| 20260505170004 | 9 | 0 | 0.0 | 6.4 | 0.00 | 0.71 | 0.48 | 85 | 1008.8 |
| 20260505165904 | 9 | 0 | 0.0 | 6.4 | 0.00 | 0.71 | 0.48 | 85 | 1008.8 |
| 20260505165804 | 9 | 0 | 0.0 | 6.4 | 0.00 | 0.71 | 0.48 | 85 | 1008.8 |
| 20260505165704 | 9 | 142 | 1.6 | 6.4 | 0.00 | 0.71 | 0.48 | 85 | 1008.7 |
| 20260505165604 | 9 | 139 | 1.6 | 6.4 | 0.00 | 0.71 | 0.48 | 86 | 1008.7 |
| 20260505165505 | 9 | 129 | 1.6 | 6.4 | 0.00 | 0.71 | 0.48 | 86 | 1008.7 |
| 20260505165404 | 9 | 126 | 1.6 | 6.4 | 0.00 | 0.71 | 0.48 | 86 | 1008.7 |
| 20260505165306 | 9 | 118 | 3.2 | 6.4 | 0.00 | 0.71 | 0.48 | 86 | 1008.7 |
| 20260505165005 | 9 | 116 | 3.2 | 6.4 | 0.00 | 0.71 | 0.48 | 87 | 1008.6 |
| 20260505164804 | 9 | 116 | 1.6 | 6.4 | 0.00 | 0.71 | 0.48 | 87 | 1008.6 |
| 20260505164704 | 9 | 0 | 0.0 | 6.4 | 0.00 | 0.71 | 0.48 | 87 | 1008.6 |
| 20260505164604 | 9 | 120 | 3.2 | 6.4 | 0.00 | 0.71 | 0.48 | 88 | 1008.7 |
| 20260505164504 | 9 | 142 | 3.2 | 6.4 | 0.00 | 0.71 | 0.48 | 88 | 1008.6 |
| 20260505164404 | 8 | 166 | 3.2 | 6.4 | 0.00 | 0.71 | 0.48 | 88 | 1008.6 |
| 20260505164204 | 8 | 0 | 0.0 | 6.4 | 0.00 | 0.71 | 0.48 | 88 | 1008.6 |
| 20260505163804 | 8 | 0 | 0.0 | 6.4 | 0.00 | 0.71 | 0.48 | 88 | 1008.6 |
| 20260505163704 | 8 | 0 | 0.0 | 6.4 | 0.00 | 0.71 | 0.48 | 88 | 1008.5 |
| 20260505163605 | 8 | 198 | 1.6 | 6.4 | 0.00 | 0.71 | 0.48 | 88 | 1008.6 |
| 20260505163504 | 8 | 191 | 3.2 | 6.4 | 0.00 | 0.71 | 0.48 | 89 | 1008.6 |
| 20260505163305 | 8 | 161 | 1.6 | 6.4 | 0.00 | 0.71 | 0.48 | 90 | 1008.6 |
| 20260505163205 | 8 | 144 | 3.2 | 6.4 | 0.00 | 0.71 | 0.48 | 90 | 1008.6 |
| 20260505163105 | 8 | 141 | 1.6 | 6.4 | 0.00 | 0.71 | 0.48 | 91 | 1008.6 |
| 20260505162905 | 8 | 128 | 3.2 | 4.8 | 0.00 | 0.71 | 0.48 | 91 | 1008.6 |
| 20260505162805 | 8 | 0 | 0.0 | 4.8 | 0.00 | 0.71 | 0.48 | 91 | 1008.5 |
| 20260505162704 | 8 | 137 | 1.6 | 4.8 | 0.00 | 0.71 | 0.48 | 91 | 1008.5 |
| 20260505162604 | 8 | 137 | 1.6 | 4.8 | 0.00 | 0.71 | 0.48 | 91 | 1008.5 |
| 20260505162504 | 8 | 132 | 3.2 | 4.8 | 0.00 | 0.71 | 0.48 | 91 | 1008.6 |
| 20260505162306 | 8 | 0 | 0.0 | 4.8 | 0.00 | 0.71 | 0.48 | 91 | 1008.4 |
| 20260505162204 | 8 | 0 | 0.0 | 4.8 | 0.00 | 0.71 | 0.48 | 91 | 1008.5 |
| 20260505162105 | 8 | 135 | 1.6 | 4.8 | 0.00 | 0.71 | 0.48 | 91 | 1008.3 |
| 20260505161904 | 8 | 0 | 0.0 | 6.4 | 0.00 | 0.71 | 0.48 | 91 | 1008.5 |
| 20260505161805 | 7 | 0 | 0.0 | 6.4 | 0.00 | 0.71 | 0.48 | 91 | 1008.5 |
| 20260505161604 | 7 | 125 | 1.6 | 6.4 | 0.00 | 0.71 | 0.48 | 91 | 1008.6 |
| 20260505161404 | 7 | 123 | 1.6 | 6.4 | 0.00 | 0.71 | 0.48 | 91 | 1008.6 |
| 20260505161204 | 7 | 111 | 3.2 | 6.4 | 0.00 | 0.71 | 0.48 | 91 | 1008.6 |
| 20260505161104 | 7 | 112 | 3.2 | 6.4 | 0.00 | 0.71 | 0.48 | 91 | 1008.4 |
| 20260505161004 | 7 | 113 | 3.2 | 6.4 | 0.00 | 0.71 | 0.48 | 91 | 1008.5 |
| 20260505160904 | 7 | 119 | 1.6 | 6.4 | 0.00 | 0.71 | 0.48 | 91 | 1008.4 |
| 20260505160804 | 7 | 116 | 3.2 | 6.4 | 0.00 | 0.71 | 0.48 | 91 | 1008.5 |
| 20260505160704 | 7 | 114 | 3.2 | 6.4 | 0.00 | 0.71 | 0.48 | 91 | 1008.4 |
| 20260505160604 | 7 | 109 | 3.2 | 6.4 | 0.00 | 0.71 | 0.48 | 91 | 1008.6 |
| 20260505160504 | 7 | 106 | 3.2 | 6.4 | 0.00 | 0.71 | 0.48 | 91 | 1008.5 |
| 20260505160404 | 7 | 100 | 3.2 | 6.4 | 0.00 | 0.71 | 0.48 | 91 | 1008.5 |
| 20260505160304 | 7 | 98 | 3.2 | 6.4 | 0.00 | 0.71 | 0.48 | 92 | 1008.4 |
| 20260505160104 | 7 | 113 | 3.2 | 6.4 | 0.00 | 0.71 | 0.48 | 92 | 1008.5 |
| 20260505153304 | 7 | 0 | 0.0 | 6.4 | 0.00 | 0.71 | 0.48 | 92 | 1008.1 |
| 20260505153204 | 7 | 0 | 0.0 | 6.4 | 0.00 | 0.71 | 0.48 | 92 | 1008.1 |
| 20260505153004 | 7 | 0 | 0.0 | 6.4 | 0.00 | 0.71 | 0.48 | 92 | 1008.1 |
| 20260505152904 | 7 | 231 | 1.6 | 9.7 | 0.00 | 0.71 | 0.48 | 92 | 1008.1 |
| 20260505152804 | 7 | 0 | 0.0 | 9.7 | 0.00 | 0.71 | 0.48 | 92 | 1008.1 |
| 20260505152607 | 7 | 0 | 0.0 | 9.7 | 0.00 | 0.71 | 0.48 | 92 | 1008.0 |
| 20260505152504 | 7 | 230 | 3.2 | 9.7 | 0.00 | 0.71 | 0.48 | 92 | 1007.9 |
| 20260505152404 | 7 | 234 | 3.2 | 9.7 | 0.00 | 0.71 | 0.48 | 92 | 1008.0 |
| 20260505152305 | 7 | 238 | 3.2 | 9.7 | 0.00 | 0.71 | 0.48 | 92 | 1008.0 |
| 20260505152104 | 7 | 234 | 3.2 | 9.7 | 0.03 | 0.71 | 0.48 | 92 | 1008.0 |
| 20260505152005 | 7 | 245 | 4.8 | 9.7 | 0.03 | 0.71 | 0.48 | 93 | 1008.0 |
| 20260505151904 | 7 | 247 | 3.2 | 9.7 | 0.03 | 0.71 | 0.48 | 93 | 1008.0 |
| 20260505151804 | 7 | 251 | 4.8 | 9.7 | 0.03 | 0.71 | 0.48 | 93 | 1008.0 |
| 20260505151604 | 7 | 256 | 3.2 | 9.7 | 0.03 | 0.71 | 0.48 | 94 | 1007.9 |
| 20260505151505 | 7 | 258 | 3.2 | 9.7 | 0.03 | 0.71 | 0.48 | 94 | 1007.9 |
| 20260505151304 | 7 | 263 | 4.8 | 9.7 | 0.03 | 0.71 | 0.48 | 94 | 1007.9 |
| 20260505151204 | 7 | 267 | 6.4 | 9.7 | 0.03 | 0.71 | 0.48 | 95 | 1007.9 |
| 20260505151104 | 7 | 270 | 6.4 | 8.0 | 0.05 | 0.71 | 0.48 | 95 | 1007.9 |
| 20260505150804 | 7 | 261 | 4.8 | 9.7 | 0.05 | 0.71 | 0.48 | 95 | 1007.9 |
| 20260505150704 | 7 | 261 | 3.2 | 9.7 | 0.05 | 0.71 | 0.48 | 95 | 1007.9 |
| 20260505150604 | 7 | 266 | 3.2 | 9.7 | 0.05 | 0.71 | 0.48 | 95 | 1007.9 |
| 20260505150504 | 7 | 268 | 4.8 | 9.7 | 0.05 | 0.71 | 0.48 | 95 | 1007.9 |
| 20260505150304 | 7 | 264 | 4.8 | 9.7 | 0.05 | 0.71 | 0.48 | 95 | 1007.9 |
| 20260505150204 | 7 | 263 | 4.8 | 9.7 | 0.05 | 0.71 | 0.48 | 95 | 1008.0 |
| 20260505140604 | 7 | 0 | 0.0 | 3.2 | 0.20 | 0.66 | 0.43 | 95 | 1007.4 |
| 20260505140504 | 7 | 0 | 0.0 | 4.8 | 0.20 | 0.66 | 0.43 | 95 | 1007.5 |
| 20260505140404 | 7 | 0 | 0.0 | 6.4 | 0.20 | 0.66 | 0.43 | 95 | 1007.5 |
| 20260505140304 | 7 | 0 | 0.0 | 6.4 | 0.20 | 0.66 | 0.43 | 95 | 1007.5 |
| 20260505140204 | 7 | 0 | 0.0 | 8.0 | 0.20 | 0.66 | 0.43 | 95 | 1007.4 |
| 20260505140104 | 7 | 0 | 0.0 | 8.0 | 0.20 | 0.66 | 0.43 | 95 | 1007.4 |
| 20260505130304 | 7 | 87 | 3.2 | 9.7 | 0.13 | 0.46 | 0.20 | 94 | 1007.0 |
| 20260505130204 | 7 | 87 | 3.2 | 9.7 | 0.13 | 0.46 | 0.20 | 94 | 1007.1 |